ECMWFFLT1_prec_cthk_000.txt.gz
RH
38 41 42 43 44 45 43 42 42 41 40 38 36 36 38 38 36 37 40 39 36 34 32 32 31 30 29 29 30 31 34 36 38 39 38 36 36 35 37 39 41 44 47 50 52 52 53 54 55 57 57 57 55 52 49 45 44 45 44 38 34 34 34
36 38 39 39 40 42 43 42 42 42 41 38 36 35 37 38 36 37 43 43 38 35 34 33 32 31 32 32 34 35 37 41 43 43 41 38 38 39 41 44 45 46 47 51 56 57 58 56 54 54 56 57 58 58 56 54 51 50 49 43 38 36 35
31 33 35 37 37 39 40 41 40 40 41 39 37 35 35 38 37 36 40 42 38 34 33 33 33 34 34 34 36 38 40 43 45 46 44 42 41 42 44 46 47 48 48 50 54 57 59 57 51 46 47 52 57 60 61 60 58 56 54 50 43 37 35
29 30 33 37 39 40 40 39 39 40 42 41 39 36 34 36 39 36 38 40 38 34 33 33 33 33 33 34 36 39 40 42 46 47 46 46 46 47 48 50 50 52 52 51 55 59 60 57 52 45 43 48 55 60 63 64 64 62 60 57 49 40 37
29 31 33 35 38 40 41 39 39 40 42 41 39 37 34 35 39 38 38 38 37 35 32 31 32 31 30 32 34 36 38 42 46 48 48 49 51 51 53 54 56 57 57 57 60 61 60 58 56 52 49 50 55 60 62 65 66 65 64 63 56 47 41
29 31 32 34 37 40 41 40 40 41 43 42 40 37 36 38 40 39 38 37 36 35 31 29 32 33 31 31 33 35 37 41 46 49 51 52 53 54 55 56 57 59 62 65 68 66 64 64 64 61 58 59 63 64 64 66 68 68 66 65 63 56 47
27 30 33 35 36 39 40 40 40 42 44 43 40 37 38 41 42 40 39 37 35 33 32 31 32 33 31 31 34 36 38 42 47 51 53 54 55 57 59 57 56 61 68 73 75 73 68 67 68 66 65 68 70 69 67 65 65 68 66 62 62 61 56
26 30 33 34 35 36 38 40 41 42 44 43 39 37 38 39 40 38 36 37 37 34 33 34 35 33 32 35 38 37 39 42 45 49 53 55 57 59 60 58 58 65 74 77 77 74 69 67 68 69 71 73 72 70 67 64 62 65 68 66 63 63 62
24 28 30 30 32 33 35 39 41 42 45 43 38 37 38 37 37 37 35 36 37 37 37 37 39 38 36 37 40 39 40 42 42 45 49 52 55 58 58 57 59 66 73 76 78 75 69 67 69 71 73 74 73 71 69 67 64 64 67 69 68 64 60
26 27 29 28 28 31 33 36 40 42 44 43 38 36 37 36 36 37 37 37 37 39 41 42 44 45 41 39 40 41 42 45 47 49 51 53 56 58 58 58 60 66 71 74 79 78 70 68 71 71 69 70 71 71 70 69 68 68 67 67 66 61 55
28 27 29 28 27 29 31 33 37 41 42 41 37 34 33 34 35 36 37 38 38 39 41 44 45 48 49 48 49 51 50 52 57 59 59 60 58 55 57 59 60 66 70 71 75 77 72 69 69 67 68 69 72 73 72 69 67 68 68 67 65 60 56
28 28 30 30 29 31 32 35 39 41 41 40 37 33 31 30 31 34 36 37 38 40 42 45 46 49 54 56 58 61 61 60 63 67 68 68 63 54 52 58 61 64 66 65 67 71 70 67 64 64 68 69 70 71 69 66 64 65 66 66 64 61 59
28 29 31 31 32 34 36 40 42 40 40 38 35 32 30 29 29 30 32 33 37 39 41 45 49 50 51 54 58 60 58 54 56 61 66 70 68 56 48 53 59 60 60 59 59 60 61 61 60 60 62 61 61 63 62 62 63 64 67 66 64 63 64
29 30 31 31 33 35 38 41 42 39 38 36 33 32 31 30 29 29 29 30 33 37 40 43 47 47 47 54 59 56 51 48 51 56 58 62 69 63 52 53 54 52 54 54 53 53 51 50 50 52 55 55 54 57 60 64 66 64 67 69 67 67 68
30 30 31 30 32 34 37 40 40 38 37 35 33 33 30 29 29 29 29 30 32 35 38 41 44 45 49 57 58 54 52 52 54 58 56 60 70 68 58 53 47 42 46 46 42 42 42 40 40 41 45 48 50 54 58 62 64 62 63 68 69 69 71
29 30 30 29 30 32 34 35 36 36 36 34 33 32 30 28 28 29 30 32 34 35 38 42 45 48 52 55 54 54 57 57 58 61 59 60 66 65 58 54 46 41 41 39 37 37 38 39 40 39 39 44 49 52 54 57 61 62 64 68 70 70 72
27 29 30 28 28 32 35 34 33 34 34 32 31 30 30 29 29 30 34 36 36 37 40 45 48 49 52 53 52 53 56 56 56 58 59 59 62 63 62 58 53 48 44 40 40 42 40 41 42 40 39 43 48 49 50 54 61 65 67 69 71 72 75
27 29 31 31 29 33 36 33 30 30 32 31 31 31 31 30 30 32 37 41 42 42 44 46 48 49 50 50 50 50 51 52 51 52 57 62 65 66 63 59 56 55 52 48 48 50 47 42 42 42 40 39 45 49 49 51 59 66 69 71 73 76 79
28 29 32 33 33 34 37 37 35 35 36 36 37 36 35 35 37 38 41 44 45 45 44 45 49 50 48 48 50 51 52 52 52 54 58 60 61 62 59 55 55 56 55 54 54 54 50 44 43 46 44 38 42 49 50 51 58 67 71 73 76 79 81
28 29 31 33 34 35 37 37 37 37 39 40 40 41 42 43 44 43 43 44 44 42 41 43 48 50 49 51 52 52 53 55 55 58 57 53 53 54 53 54 58 60 58 55 54 52 51 48 46 48 47 42 44 50 53 54 61 68 71 75 78 78 79
28 29 30 34 37 37 35 34 33 36 40 41 40 40 42 43 42 43 43 43 41 40 38 39 45 50 51 51 50 51 54 56 56 56 54 52 52 52 51 54 60 63 60 57 55 53 51 49 47 48 51 50 49 52 54 55 62 70 73 76 77 75 73
27 28 30 33 35 35 35 33 31 32 36 37 38 38 40 41 43 44 44 42 38 35 33 35 41 47 48 47 48 50 53 54 54 53 53 54 55 54 54 55 59 63 63 62 61 59 56 51 46 48 54 55 51 53 55 58 66 75 77 74 72 69 67
28 29 30 33 35 34 34 32 31 32 34 35 35 36 38 41 43 41 39 36 32 30 30 32 37 42 44 45 46 47 50 52 53 55 56 56 56 55 56 59 62 66 68 67 68 66 61 54 48 48 55 56 52 52 55 58 66 75 76 71 65 63 64
29 30 32 33 34 34 34 33 32 33 36 38 36 34 34 36 37 35 33 31 31 32 33 35 38 41 43 44 43 44 50 54 56 57 57 57 56 56 59 63 67 69 69 68 69 68 64 60 57 57 59 57 53 53 55 60 69 75 73 67 61 60 65
30 32 33 33 33 34 35 34 33 33 37 39 37 34 33 32 32 33 32 32 34 35 36 38 40 41 41 41 42 47 52 56 59 58 57 57 59 61 64 68 70 71 71 70 69 68 67 66 65 64 60 57 56 56 56 61 69 72 70 66 61 61 66
32 33 35 35 35 35 34 33 34 35 36 35 33 33 34 34 34 34 35 36 36 37 38 40 41 41 40 40 44 49 54 58 59 58 57 60 62 64 67 70 72 73 74 73 71 69 68 65 62 60 56 54 56 57 56 59 66 69 67 65 64 66 68
34 36 37 36 34 33 32 33 34 35 34 32 33 35 35 36 36 37 38 38 38 39 40 40 41 42 42 43 46 51 56 60 61 60 62 65 67 67 68 71 72 72 72 71 68 66 67 64 58 53 51 52 56 59 59 60 64 66 66 66 68 69 69
35 36 35 34 32 33 33 33 33 33 33 33 34 36 38 38 39 40 40 39 40 40 41 41 41 42 43 46 53 59 61 62 62 62 63 67 69 69 69 69 70 70 69 66 63 63 65 63 55 51 52 56 60 62 61 59 59 60 63 67 68 68 67
35 35 33 31 32 34 35 35 34 34 35 35 36 37 39 40 41 41 41 41 41 42 42 40 41 42 44 49 58 65 65 61 60 61 62 66 70 71 69 68 69 67 64 61 60 63 63 59 54 53 55 59 61 62 58 54 54 56 61 65 66 65 65
34 34 33 33 35 36 36 36 35 35 36 38 40 42 43 43 43 43 43 44 45 45 44 43 44 47 50 53 59 66 67 63 62 65 66 68 70 70 67 65 64 62 59 58 58 60 59 56 54 54 55 57 60 58 53 48 49 52 56 60 63 65 67
36 34 34 36 37 38 38 37 36 36 38 41 43 44 45 45 44 44 44 46 48 50 51 51 52 54 57 60 62 65 67 67 68 71 70 69 69 66 62 61 60 59 55 53 52 53 54 53 54 54 56 57 56 52 47 46 49 52 55 59 63 66 65
38 38 38 37 37 40 41 39 38 39 42 44 45 45 46 46 45 47 49 49 50 54 59 60 57 56 58 62 64 63 63 65 67 67 67 66 64 60 58 59 60 56 50 49 52 53 52 52 54 56 57 56 55 50 46 47 53 57 59 62 63 61 58
41 41 41 40 39 41 43 41 41 42 44 46 47 48 49 48 47 49 53 55 54 58 63 61 56 55 58 63 66 64 62 60 59 61 63 63 61 60 61 60 59 55 50 52 56 57 56 57 58 57 55 54 55 54 50 51 57 59 59 62 62 57 54
46 45 45 44 44 44 45 46 45 46 47 48 49 50 51 51 50 51 54 57 58 60 61 58 56 59 63 65 66 64 60 57 57 60 62 62 60 61 62 60 58 56 55 56 58 59 60 61 59 56 53 53 54 55 55 57 61 60 60 64 64 57 53
51 50 49 48 47 46 47 47 47 47 49 50 51 52 53 52 53 53 56 61 63 62 59 58 59 62 64 63 61 60 59 59 59 59 59 58 58 59 59 59 57 58 59 60 59 59 60 60 58 54 52 52 54 55 57 61 62 61 59 60 58 54 52
55 54 52 51 51 50 50 50 50 50 51 52 52 53 53 53 54 57 61 65 66 62 60 62 63 62 61 60 58 58 59 59 57 55 55 57 57 57 58 58 58 58 60 60 58 57 57 56 55 53 49 50 53 56 57 58 57 56 54 52 52 54 55
57 57 57 56 54 53 54 54 54 53 52 52 51 51 52 54 56 59 63 67 67 65 65 65 63 58 56 55 55 57 58 56 54 54 56 58 58 57 57 58 57 57 57 56 55 55 52 50 48 45 43 45 50 50 48 47 47 47 48 51 54 57 55
55 58 60 57 53 54 57 58 58 56 52 51 52 53 54 56 57 58 61 65 67 66 65 63 58 53 50 49 51 55 56 52 50 53 54 54 54 54 54 55 55 53 52 52 53 51 48 45 43 41 40 43 46 44 43 44 45 47 51 56 58 56 52

ECMWFFLT1_prec_cthk_003.txt.gz
RH
41 47 41 35 38 40 39 39 40 41 42 41 39 36 35 35 34 33 35 36 36 36 35 33 33 34 34 33 32 30 26 24 25 29 35 41 44 46 48 48 49 50 50 49 50 52 51 48 45 45 46 48 49 49 49 47 45 46 50 52 54 54 49
41 43 39 36 37 37 37 39 40 42 43 42 41 37 34 34 33 31 33 36 36 37 38 38 37 37 37 38 37 35 29 26 28 32 38 44 46 48 50 49 50 52 54 56 56 57 55 50 48 49 50 51 52 53 54 54 53 52 53 54 55 57 58
38 40 36 35 35 34 36 38 39 40 40 40 39 38 36 36 34 33 33 35 36 37 40 41 40 39 38 38 37 37 34 31 31 34 39 45 48 50 52 51 51 53 56 59 60 61 60 55 52 53 55 57 59 60 60 61 61 61 60 60 60 59 60
32 36 35 32 31 33 36 38 38 38 39 39 39 39 39 38 36 34 34 34 35 37 41 44 43 40 39 38 38 40 40 37 34 35 40 46 50 53 54 55 56 57 60 62 64 65 65 61 59 59 61 64 67 68 66 65 66 67 67 65 65 62 60
31 33 32 30 31 33 37 38 37 38 39 40 41 41 41 39 36 35 34 34 34 37 42 45 44 41 40 39 40 42 42 40 37 37 40 44 52 57 59 62 64 64 66 66 66 66 65 63 62 62 64 68 70 70 69 69 70 72 74 72 71 70 65
33 33 33 34 33 33 36 37 36 38 39 40 41 42 42 40 36 34 35 34 33 35 39 44 43 42 41 41 40 42 43 42 39 38 40 45 56 63 64 65 66 66 69 68 65 64 63 61 58 57 61 66 71 73 74 76 76 75 79 79 77 76 74
33 32 34 39 41 36 34 35 36 37 39 40 41 43 43 41 36 33 34 35 33 32 36 42 43 40 39 39 39 40 42 43 42 40 42 50 61 66 65 64 65 66 68 65 63 64 63 59 54 52 54 59 64 68 72 75 72 70 76 81 80 80 78
31 30 31 36 40 38 34 34 36 37 38 40 41 42 43 41 37 33 33 34 33 31 33 40 42 37 35 36 38 38 39 43 45 43 46 54 62 65 63 62 62 63 63 61 59 60 57 50 47 47 47 49 52 57 63 67 65 63 69 75 79 81 80
29 29 30 31 35 38 36 34 35 35 36 38 39 40 42 41 38 33 32 34 34 32 31 35 38 37 35 35 37 38 39 44 46 46 49 54 59 58 56 57 58 60 60 56 53 52 48 41 40 42 43 43 45 49 55 60 60 61 63 66 70 74 77
30 30 30 29 32 39 39 34 34 33 32 34 35 38 40 41 39 35 31 32 34 34 34 32 33 37 37 36 39 40 41 43 45 47 49 49 47 44 45 49 51 54 54 51 47 45 39 35 34 37 39 41 41 41 45 52 56 58 59 60 63 67 72
30 30 32 30 30 37 39 33 32 32 30 30 32 35 39 40 40 35 31 30 32 35 35 31 30 33 36 40 42 42 43 43 45 48 46 42 40 39 41 44 44 46 47 44 42 40 35 34 36 37 38 41 41 37 37 42 48 53 54 55 58 60 65
28 29 31 29 28 33 34 30 28 29 28 28 29 33 38 40 39 36 31 29 31 35 35 33 33 35 37 43 46 45 45 45 47 47 40 38 44 45 44 42 42 44 43 40 40 38 35 36 39 41 41 41 43 42 39 38 41 46 47 49 55 54 56
27 29 29 27 28 31 30 27 27 28 28 29 31 35 38 39 39 37 32 30 31 35 36 35 36 37 38 43 46 46 46 47 49 47 40 42 49 48 45 44 44 44 42 41 44 42 39 40 42 44 42 41 43 44 42 40 39 43 44 46 52 53 52
26 30 31 29 31 33 31 28 26 26 29 32 34 38 39 39 39 36 32 31 31 33 35 35 35 36 37 41 42 43 45 48 51 50 45 46 48 45 46 48 46 44 44 47 50 47 43 44 45 46 45 44 44 44 43 42 40 42 44 44 46 48 49
25 30 33 31 31 34 33 29 27 26 29 34 37 38 39 39 37 35 32 31 31 32 33 33 33 35 38 40 41 43 47 49 52 52 49 47 46 45 46 47 46 46 47 51 54 51 47 47 47 48 48 46 46 46 46 45 42 42 44 43 45 47 50
23 29 35 34 32 32 32 30 29 29 32 36 39 39 40 38 36 34 32 30 30 32 34 33 34 36 37 38 38 41 45 48 51 53 50 49 49 47 46 46 46 47 48 54 58 56 51 48 47 49 50 49 48 48 49 48 45 43 44 45 48 51 52
21 24 28 31 30 30 31 31 32 34 36 39 41 40 40 39 36 34 33 30 30 32 34 34 36 38 39 40 40 41 45 49 51 53 53 54 55 54 52 51 52 52 54 57 60 57 50 46 47 50 52 53 52 49 49 49 46 44 45 47 50 52 54
21 21 22 27 30 31 32 32 33 37 39 40 40 40 40 40 38 36 32 30 30 32 34 36 37 40 40 39 41 44 49 51 52 54 56 56 57 58 58 58 60 62 63 60 58 55 50 46 48 52 54 55 54 53 52 52 51 48 47 48 50 52 53
19 21 22 26 31 32 32 31 33 37 41 42 40 39 40 40 39 36 32 31 32 32 34 36 38 40 40 40 43 47 50 52 54 56 55 54 54 56 58 60 62 64 64 61 59 56 53 49 50 54 56 56 55 56 57 58 57 54 52 52 53 52 54
16 18 21 25 30 31 30 31 32 36 41 43 40 39 40 41 40 38 34 33 33 33 33 35 39 41 41 42 44 47 49 51 52 53 52 52 54 57 59 60 61 61 60 59 58 56 53 50 50 53 54 54 55 57 61 64 63 60 59 56 55 55 57
15 17 18 23 29 30 30 32 33 36 41 43 40 39 40 41 41 40 36 33 35 35 33 36 39 41 41 43 46 48 49 50 50 51 51 53 55 58 60 59 59 58 58 57 55 52 51 50 51 51 52 54 57 59 63 66 64 64 63 59 56 57 59
17 19 19 23 29 29 28 31 34 36 39 41 40 39 40 42 42 39 36 36 37 37 37 38 41 43 44 46 49 50 51 52 52 52 51 54 56 58 58 58 59 59 59 59 55 52 51 51 53 54 55 57 59 61 65 66 64 63 63 60 57 58 60
18 20 19 20 24 25 27 31 33 35 38 41 41 40 40 42 41 39 38 38 40 41 41 42 44 47 49 51 53 54 53 52 52 51 53 56 58 57 57 57 58 59 60 59 57 55 55 56 57 59 59 60 62 64 66 67 64 62 60 60 59 58 59
14 15 15 16 21 24 26 30 33 35 37 39 39 39 39 41 42 43 42 42 44 46 46 47 48 50 53 54 54 53 51 50 51 53 55 55 54 53 55 56 58 59 60 60 60 59 59 60 63 64 64 66 68 68 66 66 65 62 59 59 58 56 57
12 11 12 15 19 23 25 29 33 36 38 38 38 38 38 40 42 43 43 44 46 47 48 49 50 51 54 53 51 51 49 49 52 54 53 52 51 52 54 56 59 62 62 62 64 63 60 63 67 69 70 71 72 70 68 68 67 64 61 59 57 55 58
13 12 12 15 19 22 26 31 35 37 38 40 40 40 40 41 42 44 46 47 47 47 51 53 49 47 48 47 48 50 49 49 52 52 50 51 53 54 55 58 63 65 64 63 64 64 63 67 71 73 73 73 72 68 67 68 67 66 64 61 57 57 59
15 15 15 18 21 23 28 32 35 37 37 39 40 41 42 43 45 48 49 49 50 51 52 50 44 41 41 41 42 44 45 48 52 52 51 54 57 58 58 60 63 63 62 63 63 63 66 69 71 72 71 69 67 63 62 63 64 65 64 60 57 57 56
18 18 18 20 23 26 29 32 34 36 37 38 40 42 43 46 49 51 52 52 53 50 45 41 39 38 39 40 40 41 46 52 56 56 56 59 61 62 62 62 63 60 59 63 64 64 67 68 67 66 63 60 57 56 57 59 60 61 61 59 56 54 51
20 21 23 26 28 30 31 32 35 38 39 39 40 42 44 45 46 48 49 49 47 42 38 37 37 37 39 41 44 51 58 62 61 61 62 64 65 65 63 64 65 60 59 63 63 60 63 65 62 58 54 52 52 52 54 57 58 58 56 53 49 47 47
24 25 28 30 32 33 33 33 36 39 39 40 40 41 41 40 38 40 44 45 42 38 37 37 38 40 43 46 51 60 67 67 65 66 69 70 69 68 68 67 66 60 58 58 56 55 59 60 56 52 50 49 50 52 53 57 58 55 50 45 43 45 47
30 31 33 35 36 37 37 37 40 41 41 42 43 42 42 39 38 43 47 48 46 41 39 39 41 43 45 47 52 60 65 67 67 69 72 73 71 69 68 66 63 59 55 52 52 55 59 57 53 51 50 48 49 51 54 58 58 54 48 45 45 47 48
34 36 38 39 38 40 41 42 43 44 44 45 46 46 45 44 44 44 45 45 43 42 41 43 44 47 50 54 59 63 65 67 69 69 71 73 71 68 65 64 62 59 55 51 52 56 59 56 51 49 49 48 49 51 53 57 58 55 51 49 48 49 51
35 36 39 41 41 42 44 44 44 44 43 44 45 44 45 47 46 42 40 40 42 42 45 47 50 55 62 65 65 65 67 68 69 69 69 70 68 67 66 65 63 60 56 52 52 55 56 52 47 46 48 49 51 52 54 57 60 58 56 52 50 51 54
44 43 43 44 44 44 44 44 45 46 46 47 47 46 45 46 46 43 43 45 47 47 49 53 58 63 66 66 66 68 68 68 68 67 66 66 65 65 65 64 62 59 55 52 52 54 54 50 48 47 48 50 52 53 55 58 61 62 61 56 51 50 50
53 52 49 46 45 44 45 47 48 48 48 50 50 50 50 52 52 52 54 57 58 57 57 60 64 66 65 65 67 70 71 70 67 65 63 64 63 63 62 62 59 55 52 52 54 55 55 53 52 52 51 53 55 56 57 60 63 63 59 51 44 43 41
54 54 52 49 48 47 46 47 46 45 47 51 52 52 54 58 61 60 61 63 64 62 63 65 66 65 64 63 65 68 69 68 65 62 63 64 64 62 60 58 55 51 53 57 57 55 53 52 53 55 57 57 57 58 59 59 57 54 49 43 41 42 42
56 57 56 55 55 54 51 49 48 46 48 52 54 56 60 64 64 63 63 64 65 64 66 67 67 64 63 62 63 66 68 65 62 63 65 65 64 61 57 53 51 54 58 60 57 54 52 51 52 57 61 60 59 58 56 52 49 46 44 43 45 47 47
61 61 60 59 59 60 59 58 56 55 55 54 54 57 62 64 64 65 66 67 67 67 67 68 67 65 65 65 67 68 67 64 63 66 67 65 63 59 54 51 53 57 59 57 55 53 52 50 52 58 61 60 58 56 52 48 46 45 44 45 46 48 48

ECMWFFLT1_prec_cthk_009.txt.gz
RH
41 43 41 39 38 36 34 33 34 36 38 40 40 40 40 39 37 36 36 36 37 37 38 37 35 35 37 34 30 27 23 21 21 21 22 24 26 28 29 28 27 27 27 30 35 38 42 44 45 46 45 43 44 46 47 46 45 43 42 44 48 50 49
40 42 40 38 38 37 35 34 34 36 37 39 41 41 42 41 40 38 37 37 37 37 38 39 38 36 37 36 34 31 27 25 23 23 24 26 29 30 30 28 26 27 31 35 40 44 46 45 43 46 45 44 44 45 43 40 36 34 34 36 39 42 42
38 40 39 38 37 37 36 35 35 36 37 40 42 42 42 42 41 39 38 37 37 38 37 39 39 38 37 37 35 31 28 27 27 26 27 29 31 30 30 28 28 31 36 40 43 47 49 45 43 45 45 44 44 45 41 36 32 32 33 36 37 39 39
38 38 38 37 38 37 36 36 37 38 40 41 41 41 42 42 41 39 38 37 38 38 37 38 38 39 37 36 33 30 27 26 27 28 30 31 31 29 29 30 33 37 40 41 43 48 50 46 42 43 44 44 44 45 43 37 34 35 36 37 38 38 38
38 37 37 36 35 36 36 38 40 41 41 42 40 39 40 40 40 39 38 37 37 37 38 37 36 36 36 35 34 30 26 25 25 28 31 32 30 28 29 33 37 41 42 43 46 48 47 44 42 42 42 43 43 45 45 40 36 38 39 39 39 39 39
38 36 35 34 32 33 36 38 40 41 41 40 39 38 38 39 38 38 38 38 38 37 37 36 35 34 34 34 34 33 29 25 26 28 30 31 29 28 31 35 37 40 41 42 45 45 42 40 41 41 42 42 43 45 46 41 37 38 41 41 41 41 41
36 34 33 32 31 32 35 38 40 39 39 38 38 37 37 37 36 36 37 38 38 38 38 36 35 34 33 32 33 33 30 27 27 29 29 28 27 28 33 36 37 37 39 40 42 41 39 39 40 41 42 42 43 44 44 42 39 39 40 42 43 44 44
34 34 32 31 31 32 35 37 37 36 37 37 37 36 36 35 34 35 36 38 39 39 39 37 36 34 33 32 31 30 29 28 28 28 27 26 26 29 34 36 36 36 36 37 38 38 37 38 40 42 44 45 45 44 43 43 42 41 40 41 43 44 45
34 35 33 31 31 32 34 36 35 35 36 36 35 35 35 34 34 35 36 38 40 40 40 38 37 35 33 31 30 28 28 28 27 26 27 27 28 30 32 34 35 35 35 36 37 37 38 38 41 44 46 47 48 47 47 46 45 43 42 41 42 43 44
32 34 34 32 32 31 32 35 37 36 36 35 34 32 33 34 35 36 36 37 39 40 40 39 37 36 34 33 30 29 29 28 26 25 26 29 29 29 31 34 35 34 35 35 37 38 38 39 41 43 45 48 50 50 49 49 48 46 44 42 42 43 44
30 31 32 33 33 33 33 34 37 38 37 36 34 33 33 35 36 36 36 37 38 40 40 39 37 36 36 35 32 31 30 29 27 26 27 30 31 30 31 33 34 34 35 36 36 37 39 40 42 43 46 49 50 50 50 51 51 50 47 44 44 44 44
31 30 32 35 36 35 33 34 37 38 38 37 35 34 34 36 37 37 36 37 38 39 40 39 37 36 36 36 34 33 32 31 29 28 28 29 31 30 31 32 33 34 35 35 36 37 39 41 43 43 45 48 50 51 51 52 52 51 50 47 45 46 46
31 32 32 34 36 35 33 35 38 38 38 38 36 35 35 36 37 36 35 36 37 38 39 38 37 36 36 36 36 35 34 33 31 29 27 28 29 30 31 32 33 36 36 36 37 38 39 41 43 43 44 46 50 52 53 53 53 51 49 48 48 49 49
31 32 32 30 31 34 34 35 38 38 38 38 37 35 34 35 36 35 35 35 36 37 38 37 37 37 37 36 36 37 37 35 32 30 27 27 29 31 32 33 35 37 39 39 40 40 41 42 43 44 44 46 50 53 55 55 54 52 51 52 55 56 54
32 32 32 29 29 32 35 37 38 38 38 38 37 36 35 35 35 36 36 35 34 34 36 36 36 37 37 36 36 37 38 36 33 32 30 29 29 32 34 36 38 40 42 43 42 42 43 43 45 47 47 48 51 54 55 55 54 54 56 56 56 54 53
35 34 33 32 32 33 36 38 38 37 36 36 36 37 37 35 34 34 35 36 35 34 34 34 35 37 37 36 36 38 38 36 34 34 32 30 30 33 36 39 42 43 45 45 44 45 46 46 47 50 52 52 52 54 55 55 53 55 56 55 53 51 50
35 35 36 36 37 37 36 36 35 35 36 35 35 36 36 36 36 35 35 35 36 36 34 32 34 35 36 35 35 37 38 36 35 34 33 30 31 34 39 41 43 45 46 46 46 47 49 50 51 53 55 56 55 55 57 56 52 53 58 59 58 55 51
35 34 34 34 36 36 34 33 32 33 34 34 35 36 36 35 35 35 35 35 35 35 33 31 32 33 34 34 34 35 36 36 36 36 33 32 34 37 41 43 45 46 47 47 48 49 51 54 56 57 58 60 61 61 62 59 54 55 61 63 64 63 60
36 36 36 34 32 33 32 31 32 33 34 34 35 35 34 34 35 34 34 34 33 33 33 31 31 32 32 33 33 33 34 35 37 37 34 33 36 39 42 44 46 48 49 49 50 51 54 57 60 63 64 65 67 68 67 65 61 63 67 69 70 73 73
34 37 39 37 33 32 33 33 34 34 33 32 32 33 32 32 32 32 32 32 33 33 32 30 30 30 31 31 32 32 32 33 34 35 34 35 37 39 42 45 47 49 51 52 52 54 58 60 64 68 70 71 72 71 69 66 62 62 67 72 75 77 76
30 34 37 38 36 34 34 34 34 33 31 29 29 31 32 31 29 29 29 30 31 32 31 30 30 30 30 30 30 30 30 31 32 32 33 35 37 40 43 46 48 50 52 54 55 57 59 62 65 68 68 71 74 71 65 61 58 56 60 68 74 75 72
27 30 33 35 38 37 36 36 35 34 31 29 29 31 32 30 29 29 30 30 30 29 30 30 30 29 29 28 29 29 27 28 29 31 33 36 39 42 45 46 48 51 53 55 57 60 63 66 66 64 65 68 69 66 60 58 58 58 60 63 65 66 68
26 28 29 31 35 37 38 38 37 35 34 31 29 30 33 33 32 31 31 31 29 27 28 29 30 29 28 27 27 27 26 26 27 30 34 39 42 45 47 48 50 53 54 56 58 62 66 67 64 63 62 63 63 61 61 62 63 63 64 62 58 59 62
25 26 27 28 30 33 36 36 35 35 35 34 32 30 31 33 34 33 32 31 29 27 26 27 28 28 27 26 25 26 26 25 27 31 35 38 42 45 48 50 53 55 56 57 59 61 63 61 58 58 58 58 60 62 63 64 65 63 62 61 57 55 54
22 25 26 27 28 29 32 35 34 34 35 35 34 32 32 34 34 34 32 31 29 28 25 24 25 26 27 25 25 27 27 27 28 31 35 38 42 45 49 52 55 57 58 60 61 61 60 57 56 56 57 59 61 63 62 62 62 61 59 58 56 54 52
22 23 25 26 26 27 30 34 35 34 34 34 32 33 34 34 34 34 32 30 29 26 23 22 22 24 27 27 26 27 29 30 30 32 36 40 45 49 52 54 55 57 59 62 63 61 58 56 57 57 59 61 63 63 62 62 62 61 59 56 55 55 54
25 23 24 26 27 26 28 31 33 33 34 34 33 34 36 36 35 34 31 29 28 26 23 21 21 22 26 28 27 28 32 34 34 37 41 45 48 51 54 54 55 59 63 65 64 61 58 58 61 61 60 62 64 63 62 62 60 58 56 55 56 57 56
27 25 26 28 30 29 28 30 33 33 34 33 30 30 33 35 34 31 30 29 27 25 23 23 22 23 28 30 30 32 37 40 40 43 46 48 51 54 55 57 60 65 67 65 63 62 61 62 64 64 63 62 63 63 62 59 54 52 53 55 57 59 57
28 28 26 27 31 35 35 35 36 38 39 40 37 35 36 37 36 34 32 31 30 29 29 28 27 27 31 36 37 38 42 45 45 46 48 51 54 56 59 63 68 68 66 64 63 64 65 66 67 65 63 62 61 61 60 56 50 50 52 55 57 57 55
30 29 28 27 30 35 39 40 41 40 39 40 43 44 43 45 49 47 38 32 32 34 34 33 33 34 38 44 45 44 48 50 48 49 53 56 59 63 66 68 68 65 61 60 61 63 63 64 65 63 61 60 59 59 58 55 50 49 51 53 55 55 53
34 32 31 29 29 32 35 38 40 41 39 38 40 42 42 45 53 57 53 44 40 38 38 42 46 48 52 56 57 55 56 56 54 56 61 62 64 68 70 66 62 59 59 60 61 61 62 63 63 62 60 58 56 55 55 52 49 48 50 52 52 52 51
36 34 34 32 31 32 34 35 35 37 40 42 44 45 45 45 46 54 62 60 51 41 40 49 60 64 64 67 69 68 68 67 67 69 71 69 67 67 66 62 60 60 62 63 63 63 64 66 65 61 58 54 52 53 53 50 47 49 51 50 48 48 50
39 37 36 35 34 35 36 36 36 35 39 44 47 47 48 48 48 54 65 70 64 50 40 43 55 66 71 73 72 72 74 75 74 75 76 73 67 64 63 62 63 64 64 64 65 65 67 67 64 59 55 53 52 53 52 48 46 48 49 48 47 48 49
41 40 39 38 36 35 35 37 39 40 40 43 47 49 49 50 54 60 67 73 75 68 55 49 54 63 71 75 75 74 77 78 76 74 73 68 63 62 64 65 65 64 63 64 65 67 67 64 61 57 54 53 51 51 49 48 47 47 47 46 46 47 46
40 41 43 42 39 37 36 37 39 42 43 45 48 52 51 49 51 57 62 69 78 81 74 67 65 65 68 74 78 77 75 73 70 66 63 62 62 65 67 66 64 63 63 64 67 67 63 59 58 57 56 54 51 48 49 49 48 47 46 45 44 43 44
40 39 41 43 44 43 41 40 39 40 43 47 49 50 51 49 49 54 59 65 74 81 79 73 72 72 72 74 73 68 65 64 64 63 62 62 63 65 65 64 64 64 63 63 63 61 59 60 59 57 56 55 53 50 51 51 48 46 46 44 42 43 46
45 44 43 44 47 47 44 44 46 46 48 52 53 52 52 49 47 54 64 69 74 78 76 73 75 77 75 71 65 62 62 63 63 64 64 63 63 62 62 63 65 65 63 60 58 58 60 63 63 60 58 58 57 55 53 51 49 47 46 45 44 46 49
50 51 50 48 49 50 49 49 51 54 56 58 57 58 59 57 55 63 72 75 79 80 77 76 78 77 73 71 68 66 67 66 64 64 64 64 64 63 61 63 65 64 61 59 59 59 62 64 63 63 62 61 60 57 53 50 50 50 48 48 47 47 48

ECMWFFLT1_prec_cthk_015.txt.gz
RH
34 37 39 40 41 42 43 42 40 39 37 34 32 33 34 36 38 38 35 33 32 31 31 32 32 31 29 28 28 30 31 31 30 29 28 27 26 24 24 24 26 27 29 30 31 31 32 33 35 39 44 46 44 43 43 43 43 43 43 43 45 48 48
32 34 37 39 40 41 43 44 43 41 38 34 33 34 35 36 38 39 39 38 36 34 34 34 34 33 32 29 28 29 31 32 32 31 30 29 27 25 23 23 26 28 30 32 33 31 31 32 34 40 45 44 43 43 44 43 43 44 43 44 47 48 48
28 31 35 37 39 40 42 44 44 42 40 37 36 36 37 36 36 38 41 41 39 37 36 37 36 34 32 31 30 30 31 32 33 32 31 30 28 26 24 23 25 29 32 35 33 31 31 32 36 44 45 44 44 43 42 43 43 44 43 43 46 48 47
28 30 32 34 36 39 41 44 45 43 42 40 37 36 35 35 36 39 41 42 42 40 38 37 36 35 33 31 31 32 32 32 33 33 32 32 31 30 28 25 25 30 34 36 34 31 31 33 39 46 46 45 45 43 42 43 43 44 43 43 45 48 49
29 30 31 32 33 37 40 43 44 43 43 40 38 36 35 36 39 41 42 42 42 41 39 38 37 35 34 32 32 33 34 33 33 32 32 32 32 31 29 26 26 30 34 36 35 32 32 34 40 46 46 45 45 44 43 43 43 43 43 43 44 46 49
26 27 29 31 33 35 38 41 42 42 41 40 38 37 37 39 42 44 44 43 42 43 43 43 41 38 35 34 33 34 35 34 32 31 31 32 32 31 28 26 27 31 33 35 36 34 34 36 41 45 44 43 44 44 44 44 43 42 42 43 44 45 47
22 24 28 30 32 35 38 40 41 41 41 41 40 40 41 43 43 43 45 45 44 44 45 45 43 40 36 33 33 33 34 34 32 30 30 31 32 30 27 26 27 30 31 33 35 35 37 39 41 43 42 41 42 44 45 44 42 41 41 44 47 47 47
21 23 28 30 32 35 38 40 41 41 41 42 43 43 43 44 44 43 44 45 45 45 45 44 42 39 36 35 35 34 34 33 32 30 29 30 31 29 25 24 27 29 30 31 33 37 40 41 41 42 41 40 42 45 46 44 42 41 42 46 49 51 50
25 26 29 31 32 34 36 38 40 41 42 43 42 42 42 43 43 44 44 45 46 45 44 43 41 39 38 38 37 36 35 34 32 31 29 28 28 25 23 23 26 30 30 30 32 37 41 43 41 41 40 41 43 45 46 44 42 42 44 47 51 52 52
29 30 31 31 32 34 35 37 39 41 41 41 40 40 41 41 42 43 44 45 46 44 43 43 41 40 40 39 39 38 37 35 32 31 29 27 26 23 22 24 27 29 30 29 32 37 41 43 42 41 41 42 44 45 44 44 43 43 45 48 51 52 53
30 31 31 32 33 34 35 36 37 39 39 40 39 40 40 40 40 42 42 43 43 43 44 43 42 42 41 40 41 40 39 36 34 31 28 27 27 27 26 27 29 28 28 30 34 38 40 42 42 41 43 44 44 43 44 44 45 45 46 48 50 52 56
29 29 30 31 32 33 34 34 34 35 37 38 39 40 41 41 41 42 42 41 40 41 43 42 42 43 43 42 42 41 40 37 35 33 30 28 29 32 31 30 29 28 27 31 35 39 41 42 41 41 43 44 43 43 45 46 46 46 47 49 51 54 58
25 27 28 29 30 32 33 33 32 32 34 37 38 39 41 42 43 43 43 41 40 40 41 42 42 43 43 43 42 41 40 39 36 35 33 30 31 34 35 32 29 27 28 32 36 39 41 42 42 42 43 43 44 45 46 47 48 48 49 50 52 56 58
24 25 27 29 30 31 34 35 33 31 32 36 38 40 41 43 43 43 43 43 43 42 42 42 42 42 43 44 43 41 40 40 39 37 36 33 31 33 33 31 29 28 30 33 35 37 40 41 42 42 42 43 46 47 47 49 50 50 49 50 54 58 60
22 23 25 29 30 31 34 36 35 32 31 33 36 39 42 44 44 43 44 44 45 44 42 42 42 42 42 43 43 42 41 42 41 39 38 36 32 30 30 29 29 31 33 33 33 35 37 39 41 42 43 45 47 48 49 50 50 49 49 51 56 60 62
19 19 22 26 29 30 32 35 36 33 31 33 34 37 40 43 44 44 43 43 44 44 44 44 43 43 43 42 41 42 43 43 42 40 39 39 34 30 29 28 30 34 36 34 33 33 35 38 43 45 47 47 47 48 50 49 48 47 49 53 57 60 63
18 19 20 22 26 29 30 33 35 35 34 34 35 37 39 41 43 44 43 43 44 44 44 45 45 44 43 41 40 43 45 45 44 42 41 41 38 34 31 29 31 35 37 36 34 33 33 38 44 46 47 47 46 47 47 46 46 47 50 53 56 59 64
19 21 22 21 23 27 29 31 33 33 34 35 36 36 38 41 42 44 43 42 42 43 44 45 45 43 42 41 41 44 46 47 47 45 42 42 42 38 34 33 33 35 37 38 37 34 33 37 41 44 45 46 46 46 45 44 45 47 49 51 54 58 66
24 24 24 23 24 27 29 30 30 31 33 34 34 34 36 39 41 41 41 41 42 43 45 45 44 42 41 41 43 45 45 47 49 47 44 43 44 43 39 36 35 35 36 37 38 37 36 36 37 39 42 45 45 45 44 43 44 45 48 50 52 57 68
28 27 25 24 25 27 28 28 29 30 31 32 33 33 34 36 38 39 40 41 42 44 44 43 43 42 41 41 42 43 45 47 48 47 46 44 45 46 43 38 35 35 37 39 40 38 36 36 36 38 39 42 43 44 44 43 42 43 47 50 53 59 67
28 30 27 25 25 26 26 26 27 29 30 31 32 34 34 34 35 37 40 42 43 43 42 40 40 40 39 40 42 43 45 47 47 47 47 47 46 47 45 41 36 35 37 40 41 38 36 35 37 37 37 39 41 43 43 42 42 44 47 51 56 62 68
23 27 26 25 24 25 26 26 26 27 28 29 31 34 35 34 35 37 39 41 41 40 40 39 39 39 39 40 42 43 44 45 47 47 47 47 47 47 45 43 39 36 37 40 41 40 38 37 37 38 38 38 40 41 42 42 42 44 49 54 60 64 69
19 20 22 23 24 24 25 26 27 27 28 29 31 33 34 35 36 37 39 39 39 39 40 40 40 39 40 41 41 42 42 44 46 47 47 47 47 46 46 43 40 38 37 40 42 41 39 38 39 40 39 38 39 41 42 42 43 46 53 58 60 64 68
21 20 20 21 23 23 24 26 28 28 29 29 29 31 34 37 37 38 38 37 38 39 39 39 39 38 40 41 40 40 40 42 44 45 46 47 47 46 46 43 40 39 39 40 41 41 39 40 42 42 40 38 38 40 42 43 44 48 55 60 60 63 69
21 22 22 24 25 24 23 25 27 28 28 28 28 30 35 38 37 37 37 37 37 38 38 37 36 37 39 40 38 38 39 41 42 42 43 45 46 47 46 44 41 39 40 41 42 41 41 43 45 44 42 40 40 42 44 46 48 52 60 64 59 58 65
19 20 23 25 27 26 25 25 26 27 28 29 30 33 36 38 37 36 37 38 39 39 37 34 34 36 37 38 38 39 40 42 41 41 40 42 46 46 45 45 44 42 41 41 42 43 44 45 46 46 45 45 45 47 49 51 52 57 65 65 56 53 61
19 19 22 24 24 25 26 27 27 27 28 29 32 35 37 38 39 38 38 39 39 38 35 32 32 34 35 37 40 41 43 43 43 41 38 39 44 47 46 46 46 45 43 41 42 44 46 46 48 49 51 51 51 51 53 54 56 63 69 64 54 53 62
18 18 19 20 20 21 22 25 26 26 26 27 30 33 35 36 38 39 39 40 38 35 33 33 34 35 36 38 41 43 45 45 45 45 43 40 42 46 47 47 48 49 48 44 42 44 46 47 49 52 54 53 53 54 55 56 61 69 69 61 54 56 63
18 18 18 18 19 18 18 20 21 22 22 23 26 29 32 32 33 35 37 38 37 36 37 37 38 40 41 43 43 44 46 46 46 48 48 47 45 45 47 49 51 54 55 52 49 46 45 46 49 51 53 53 54 57 58 58 66 75 72 64 63 65 67
20 20 19 19 20 20 20 20 20 20 20 20 22 26 30 32 33 34 34 35 36 37 39 39 39 42 45 46 46 46 46 47 47 48 50 50 50 49 49 50 51 52 55 58 57 53 49 47 48 49 52 55 57 59 59 61 69 77 75 71 74 74 72
24 23 22 21 22 23 23 23 24 23 23 23 22 24 27 30 33 33 33 33 34 35 37 39 40 42 43 45 45 46 47 47 49 51 53 55 56 55 54 53 52 51 53 57 61 61 57 53 50 49 51 55 57 58 60 65 73 74 70 70 75 78 76
29 27 26 25 25 26 26 26 26 26 27 27 27 27 28 30 31 33 33 34 33 34 35 37 39 40 42 43 44 44 45 46 47 49 51 53 56 57 58 57 56 54 53 55 59 62 62 59 56 55 56 58 59 61 65 71 74 69 63 65 74 80 80
34 31 30 29 28 28 29 29 29 30 29 29 29 30 31 32 33 34 35 35 35 35 35 36 37 37 40 43 44 44 45 44 45 47 48 50 53 56 57 58 60 58 56 54 54 57 59 61 61 62 63 65 65 65 69 75 75 67 60 63 72 78 77
40 37 34 32 31 30 30 29 30 30 30 29 29 29 30 32 33 35 36 36 36 36 36 36 35 35 35 38 40 42 44 44 45 47 47 47 50 54 57 59 62 62 58 55 53 53 53 57 63 68 71 73 71 70 74 77 73 66 61 64 74 78 75
43 41 38 35 34 33 32 31 30 30 30 30 31 31 31 31 32 32 33 35 37 38 38 37 36 36 36 37 39 41 44 48 50 50 48 45 44 47 51 54 56 59 59 56 56 56 54 58 67 73 76 77 75 74 78 77 70 63 60 63 73 78 75
44 43 41 39 38 36 36 35 34 33 34 33 33 34 34 34 34 33 32 32 34 36 38 39 39 40 40 40 41 41 43 46 50 51 50 47 42 42 46 47 46 50 55 56 56 56 56 62 69 70 69 74 79 81 79 73 64 60 59 63 72 78 76
44 44 43 42 41 40 40 40 38 37 37 36 36 37 37 37 38 38 37 36 35 37 39 41 42 43 41 40 39 38 39 40 43 43 43 43 42 42 44 45 44 48 53 54 53 55 59 66 71 69 65 68 77 83 82 73 64 60 61 66 71 74 74
46 45 44 44 44 44 45 45 43 41 40 40 39 38 37 38 39 40 41 40 40 41 42 42 43 43 42 41 41 40 39 39 40 39 38 38 41 42 43 44 48 51 52 51 55 66 73 73 72 74 74 69 67 72 76 75 70 65 63 65 68 68 68

ECMWFFLT1_prec_cthk_021.txt.gz
RH
39 40 40 41 43 42 42 41 40 39 38 35 33 29 25 21 19 18 16 15 17 17 18 18 18 18 18 18 19 20 21 21 21 20 19 19 19 19 18 18 19 19 19 20 20 21 23 27 31 32 36 40 42 39 37 37 38 38 39 41 41 41 42
37 38 38 40 41 40 38 38 39 39 38 37 36 33 30 27 24 21 18 17 16 16 17 18 19 19 19 19 20 22 23 24 25 25 24 23 22 21 20 20 20 20 20 22 22 21 22 26 29 31 35 39 40 37 36 36 38 40 41 42 43 42 43
36 36 37 38 38 36 36 36 37 38 38 38 38 36 35 33 30 27 23 21 19 18 19 20 21 22 21 21 21 22 24 26 26 27 27 26 25 25 24 23 22 22 22 22 23 22 22 25 28 29 33 37 37 36 35 35 38 41 41 42 43 43 44
35 35 36 36 35 35 35 34 34 35 36 37 38 37 37 37 36 33 29 27 24 22 22 23 24 25 25 24 24 24 25 26 26 27 27 27 27 28 28 26 24 24 23 23 24 24 23 24 26 28 30 34 35 35 35 34 37 41 41 41 43 44 44
35 35 35 34 35 37 38 38 36 35 35 35 36 37 38 39 40 38 35 33 31 28 27 27 26 27 27 27 27 27 27 27 27 27 28 28 28 29 29 28 27 26 25 25 26 26 24 23 25 26 28 31 34 36 35 34 36 40 40 41 43 44 44
33 34 33 33 35 36 37 38 38 38 37 36 36 36 38 40 42 41 39 36 36 36 35 34 33 31 30 29 29 29 29 29 29 29 28 28 29 29 30 30 30 29 28 28 28 28 27 25 25 25 26 30 33 35 35 34 35 39 40 40 42 43 43
29 31 31 31 32 33 34 35 36 38 39 39 39 39 39 40 42 44 43 39 36 37 39 40 40 40 37 35 34 33 32 31 31 30 30 30 30 31 31 31 31 30 30 30 30 30 29 27 26 26 27 29 33 35 35 33 35 38 40 40 41 42 42
23 28 28 29 30 31 33 33 34 37 39 41 42 42 41 42 43 45 46 42 38 37 39 41 43 44 44 43 42 40 37 34 32 31 31 31 31 32 33 32 32 32 32 32 31 30 30 29 27 27 28 30 33 35 35 33 34 38 40 39 39 41 41
21 26 28 28 30 31 32 33 33 36 39 41 41 41 41 42 44 45 46 46 42 38 37 40 43 44 45 47 48 47 45 41 37 34 32 32 32 33 34 34 33 32 32 32 32 31 30 28 27 28 28 29 32 35 35 33 34 38 40 39 39 40 41
18 22 24 25 27 28 30 32 34 35 37 39 40 41 41 41 43 45 46 47 45 39 37 39 43 45 45 47 49 50 48 46 41 37 34 34 34 34 34 34 33 32 31 31 31 31 29 28 28 28 28 28 31 34 35 34 35 38 40 40 39 39 40
14 17 20 20 22 25 28 31 33 34 35 37 39 41 41 41 42 44 45 46 44 40 39 42 44 45 45 47 49 49 47 45 42 39 36 36 36 36 35 34 33 31 30 29 29 28 28 28 27 27 27 27 29 33 35 35 35 37 39 40 39 39 40
11 14 16 16 17 22 26 28 30 32 33 34 37 39 41 41 42 43 44 43 42 42 42 44 46 47 46 46 48 47 44 43 41 39 39 39 38 38 36 35 33 31 29 27 27 26 25 25 25 25 26 27 28 31 34 35 35 36 38 39 39 38 39
9 10 11 12 15 19 23 26 28 29 31 31 32 35 38 40 41 42 43 42 42 44 44 45 45 46 45 45 46 45 42 41 39 39 40 41 40 39 37 35 35 33 31 29 27 26 25 24 24 24 25 26 28 29 32 34 35 35 36 38 38 38 39
9 9 9 9 11 15 18 21 24 27 30 31 31 32 34 37 39 40 41 42 43 43 43 43 44 44 43 43 44 44 41 40 39 39 41 42 42 40 38 37 36 36 35 33 31 29 27 26 26 26 27 27 27 28 29 32 34 34 35 37 37 38 38
10 9 9 9 9 11 14 16 19 24 29 31 32 32 33 34 37 38 39 40 41 41 41 41 41 40 41 41 41 41 41 41 40 41 43 43 42 41 40 39 37 37 38 38 36 34 31 29 28 28 30 30 28 28 28 29 32 34 35 36 36 37 39
9 9 9 9 9 10 13 16 17 21 26 29 30 33 33 32 33 35 37 38 38 38 39 39 39 39 40 39 38 39 41 42 42 42 44 44 42 42 43 42 40 39 40 40 39 37 35 32 29 28 30 30 29 28 26 26 29 33 35 35 35 37 38
8 9 9 9 9 10 13 16 18 19 24 28 29 31 33 33 32 34 35 37 38 37 38 38 38 38 39 38 38 40 41 42 42 43 43 43 42 42 44 44 43 42 41 41 41 40 37 34 31 28 28 29 29 27 25 24 27 32 35 36 36 37 38
9 9 9 9 9 9 11 14 16 18 21 25 28 29 31 33 34 35 35 36 37 37 37 37 38 39 39 39 40 41 41 42 43 43 42 42 42 42 43 45 45 44 43 43 42 42 39 36 33 30 29 29 28 26 24 24 25 30 35 36 37 37 38
9 9 9 10 9 9 9 10 13 17 19 21 25 27 28 30 32 34 35 35 36 38 39 39 39 40 41 41 41 42 42 43 43 42 42 41 41 42 43 44 44 44 44 44 43 43 42 39 35 32 30 29 28 26 24 24 25 29 33 36 37 37 38
10 10 10 10 10 9 9 9 11 14 16 19 23 26 27 29 30 33 35 35 36 38 40 42 42 42 43 44 43 43 44 43 42 41 41 41 41 42 43 42 43 43 45 46 45 44 44 41 38 34 32 30 29 27 25 25 25 29 32 35 36 37 38
11 11 10 11 10 10 9 9 10 12 13 18 22 24 27 29 29 31 34 35 35 36 38 41 43 44 45 46 45 46 46 44 43 42 42 42 42 41 42 42 43 43 44 46 46 45 45 44 40 36 34 32 30 28 28 27 27 28 32 34 36 38 40
12 12 11 11 11 10 10 9 10 11 13 16 19 21 25 29 28 29 31 31 32 34 35 37 40 42 44 45 45 46 46 45 45 44 44 44 44 43 43 43 43 43 44 44 45 46 48 47 43 39 36 34 32 31 30 30 28 27 30 33 36 38 42
15 13 12 12 11 10 10 10 11 12 15 16 16 17 22 27 28 28 29 29 30 33 34 34 36 38 40 41 41 42 43 44 44 45 46 47 47 46 45 45 45 46 45 45 45 46 48 49 47 45 42 38 35 33 33 33 30 28 30 33 35 39 42
17 16 15 13 12 11 11 12 12 14 16 16 16 17 19 22 25 27 29 30 32 33 34 35 36 36 36 36 36 37 39 42 43 45 47 48 48 47 47 47 47 47 47 47 46 46 48 50 51 52 50 44 39 36 35 34 32 31 33 34 36 39 42
21 21 20 17 15 13 13 14 13 14 16 17 17 18 18 19 22 24 26 29 31 33 34 35 36 36 35 35 35 36 39 41 43 44 45 46 46 46 46 47 48 49 49 49 48 48 50 52 54 56 53 50 47 43 38 36 35 34 35 37 38 39 42
26 26 23 20 17 16 14 14 14 15 16 17 17 18 20 20 22 24 26 28 29 31 33 34 35 36 36 37 37 38 40 42 43 44 44 44 43 44 46 47 48 49 49 48 48 49 52 54 55 54 52 52 54 51 43 39 38 37 37 38 39 40 42
30 29 26 22 20 18 17 15 16 17 18 18 18 18 19 21 22 24 26 28 28 29 31 32 33 34 36 37 38 40 43 44 44 44 44 42 42 43 45 46 47 48 48 48 49 49 52 55 55 55 54 54 56 55 50 44 41 39 39 39 39 40 43
31 31 30 27 24 22 20 17 17 17 18 19 19 19 20 21 23 24 25 26 27 28 28 28 29 32 34 36 37 39 43 45 45 44 44 44 44 44 45 47 48 48 48 48 47 47 50 52 53 56 58 57 56 56 55 50 45 42 41 40 40 41 43
32 32 32 32 30 26 23 19 17 17 18 18 19 20 21 22 23 24 25 26 28 28 28 28 29 30 32 34 36 38 40 42 42 42 43 45 44 44 45 47 48 48 47 47 47 47 49 50 51 56 60 59 58 57 55 55 53 49 48 48 45 44 44
34 33 33 33 32 29 26 22 20 19 19 20 20 20 22 22 23 23 24 25 27 29 30 30 31 31 32 33 35 36 37 37 37 39 41 42 43 44 45 46 47 46 46 46 45 46 49 51 55 59 59 58 59 58 57 58 57 54 55 57 56 53 50
38 36 35 33 32 30 28 26 24 23 23 23 23 23 24 24 24 24 24 24 25 27 28 29 31 33 35 35 36 37 38 38 38 39 40 41 41 43 44 46 46 45 43 43 43 44 48 54 59 61 60 58 58 57 59 61 61 58 60 63 63 64 62
42 39 37 35 33 32 30 29 28 27 27 27 28 28 29 29 28 27 26 26 26 26 26 27 28 30 34 37 39 39 40 41 41 41 41 41 41 42 44 45 46 44 42 41 41 43 48 52 55 57 58 60 61 61 62 63 61 59 60 64 67 69 69
45 42 39 38 37 36 34 32 30 29 28 29 30 31 32 33 33 32 32 31 30 30 29 30 30 30 33 36 39 40 41 42 43 44 45 45 45 46 47 47 47 46 44 42 43 47 50 52 53 54 55 57 60 63 66 65 62 58 58 61 64 65 66
46 46 44 42 41 40 38 35 33 32 30 29 30 30 31 32 33 33 33 33 32 32 32 33 33 33 33 35 36 38 40 41 42 44 44 43 44 45 46 46 46 46 45 44 45 47 49 49 50 50 50 51 54 59 63 63 60 56 55 58 62 64 69
47 47 47 46 45 44 43 39 36 34 33 32 32 31 30 30 30 31 31 30 29 30 30 31 33 34 35 36 36 37 38 38 39 39 39 39 40 40 41 43 43 45 46 47 47 48 48 48 48 47 47 49 50 52 53 53 50 50 53 57 60 64 70
47 47 47 48 47 46 46 43 39 36 34 33 32 31 30 30 30 29 29 28 27 27 28 29 30 32 34 35 36 37 37 38 38 38 38 38 38 38 38 39 40 41 44 46 49 50 51 50 50 49 50 52 51 49 49 49 49 51 56 59 60 63 67
49 48 48 48 48 47 48 47 44 41 39 37 35 33 32 32 32 31 31 30 29 30 30 29 30 30 31 32 32 33 34 35 36 37 38 38 38 38 37 37 37 38 39 41 43 45 46 47 48 48 50 51 51 50 51 53 54 56 58 61 62 67 72
51 50 49 49 48 47 48 48 48 48 47 45 41 37 36 35 35 34 34 34 33 33 32 32 31 31 30 30 30 30 30 31 32 32 33 35 36 36 36 37 36 37 37 38 39 40 41 42 43 44 45 46 47 47 49 51 53 54 55 59 65 73 80

ECMWFFLT1_prec_cthk_024.txt.gz
RH
30 30 32 32 31 31 33 34 36 37 39 40 38 32 24 19 17 16 15 14 15 16 16 17 17 18 18 18 17 16 15 16 17 17 18 18 18 18 18 18 18 18 18 18 18 18 18 20 23 27 29 33 36 38 39 38 33 34 36 34 35 39 40
28 29 31 31 30 31 33 35 35 35 36 37 38 37 31 23 18 15 13 12 13 13 14 15 15 16 17 17 17 16 15 16 17 18 19 17 17 17 17 18 18 17 18 18 18 18 18 18 20 24 28 31 34 37 39 38 34 34 36 35 36 39 40
28 29 30 31 31 32 34 36 34 33 33 34 35 35 34 29 23 18 14 12 12 12 13 14 14 14 15 16 16 15 15 16 17 19 19 18 17 18 18 18 18 18 17 18 18 19 19 18 18 21 24 27 31 35 38 38 35 34 35 36 36 38 40
29 30 31 32 33 33 33 33 33 32 32 32 31 31 33 32 30 25 19 14 12 11 12 12 13 13 14 15 15 15 15 15 17 19 19 19 21 21 21 21 20 20 19 19 19 20 20 19 18 19 22 25 28 32 36 38 38 36 35 36 37 38 39
29 31 32 32 33 33 32 30 29 30 30 30 30 29 30 32 33 32 28 22 17 14 12 12 12 13 13 14 15 15 15 16 18 19 19 21 23 24 24 24 23 23 23 23 22 22 22 22 21 20 21 24 26 30 33 38 39 37 35 37 39 39 38
29 31 32 32 34 33 32 30 30 31 31 31 32 33 33 35 36 36 35 32 27 22 18 16 15 15 15 16 16 17 17 18 19 20 21 22 24 25 25 25 26 25 25 26 25 24 24 23 23 22 22 24 26 29 31 34 38 37 35 37 39 39 37
29 31 33 33 34 33 33 34 35 36 36 34 34 35 37 38 39 40 40 38 35 31 26 23 22 20 19 20 19 20 20 21 22 22 23 24 24 25 25 26 26 26 27 27 26 26 25 25 24 24 24 25 26 28 29 31 34 36 35 36 38 39 37
29 31 33 34 35 33 34 36 37 38 37 34 32 33 35 36 38 41 41 39 39 37 33 29 28 26 26 25 25 24 23 23 23 24 24 25 25 25 25 25 25 25 26 27 27 27 27 26 26 26 26 26 26 27 28 30 32 34 35 35 36 38 37
28 31 33 34 35 34 34 36 37 36 36 35 33 33 34 34 35 37 37 39 41 40 36 33 33 31 31 31 31 30 29 27 26 25 26 26 26 25 25 24 24 25 25 26 27 27 27 28 28 27 28 27 26 26 27 29 31 33 35 35 35 37 38
29 31 33 33 33 34 33 34 35 35 36 36 36 36 36 35 35 35 35 37 39 40 39 38 37 35 34 34 35 36 35 34 32 30 29 29 28 27 25 25 25 25 25 26 27 27 27 28 29 29 29 28 28 27 26 27 30 32 34 35 34 36 38
27 30 32 32 33 33 33 32 33 34 35 36 36 37 37 36 37 37 37 38 39 40 42 42 41 38 36 36 37 38 38 39 38 36 35 34 32 29 27 26 26 26 25 25 26 27 27 26 27 27 27 27 27 26 25 25 27 30 33 35 34 34 37
23 26 28 30 31 32 32 32 32 32 33 33 34 36 37 37 37 38 39 40 41 42 45 45 43 41 38 37 38 40 40 41 41 40 40 39 36 33 30 28 28 27 26 25 25 26 25 24 24 24 24 25 25 25 24 23 24 26 31 34 35 33 35
19 21 24 25 26 28 30 31 31 31 31 31 33 36 37 37 37 37 38 40 41 43 46 47 46 43 40 38 39 40 41 41 41 41 43 43 39 36 34 32 30 30 30 28 26 26 27 26 24 23 23 24 24 25 24 23 22 23 27 32 35 34 34
14 16 19 21 21 23 25 28 28 28 29 30 33 36 36 38 38 37 37 39 40 42 44 46 47 45 42 40 40 40 39 40 41 41 42 42 40 37 36 35 33 32 33 32 30 29 31 31 29 27 26 25 26 26 26 24 22 22 23 28 32 34 34
10 10 13 17 20 21 22 24 26 25 26 27 31 35 36 37 38 37 37 38 40 41 43 45 46 46 43 41 40 39 39 40 41 41 41 41 39 37 36 37 36 35 34 34 33 34 35 37 36 33 30 28 28 28 28 27 25 23 23 25 27 31 33
9 9 10 12 17 18 18 19 19 20 22 24 27 31 34 35 37 37 37 39 41 42 43 45 45 44 43 41 41 40 40 40 41 41 41 40 38 36 36 38 39 37 35 35 35 36 38 40 40 38 35 32 30 28 28 28 27 26 24 23 25 28 31
9 9 9 10 12 13 12 12 12 14 18 20 23 26 29 31 33 34 35 38 41 43 43 45 45 44 42 42 41 41 40 38 38 40 40 39 37 37 37 39 40 39 38 37 37 38 40 41 41 41 40 37 32 29 28 27 26 26 24 22 22 25 29
9 9 9 9 11 11 9 9 9 10 14 16 18 20 23 26 29 32 33 34 37 41 42 43 44 42 41 41 41 40 38 36 37 38 38 38 38 39 40 41 42 42 41 40 41 41 41 41 42 42 42 41 38 33 29 28 26 24 23 20 19 21 25
9 10 9 9 12 12 11 10 9 10 11 13 14 15 18 21 25 28 32 33 35 38 40 41 41 40 39 39 39 37 36 36 36 36 37 38 39 41 42 43 43 42 41 42 45 45 45 44 45 46 46 44 42 39 33 30 27 25 23 21 19 19 22
10 11 11 10 12 13 12 10 10 10 10 11 12 13 15 19 22 26 31 34 34 34 37 40 41 40 39 37 36 35 35 35 36 36 37 39 40 42 42 42 43 43 43 46 48 48 51 52 50 52 53 48 46 46 40 34 31 28 25 24 22 20 20
11 11 12 12 12 13 12 11 10 10 10 10 11 13 14 18 24 28 31 34 34 33 35 38 39 40 39 37 35 35 34 34 35 36 38 39 41 41 41 41 42 43 44 47 48 49 55 57 54 55 57 52 49 50 46 40 36 32 30 28 26 24 22
11 12 14 15 14 13 11 11 11 10 10 11 11 13 15 19 24 28 29 32 34 35 36 36 38 38 38 36 34 33 34 36 38 39 38 39 40 40 40 39 40 41 44 47 48 50 54 55 55 57 58 55 52 50 48 46 42 37 34 33 31 28 25
13 14 16 15 14 13 11 11 11 11 11 11 11 12 15 19 23 25 27 30 34 36 37 37 37 37 37 36 35 34 36 38 40 40 40 39 39 38 38 39 40 42 44 46 48 50 51 51 55 59 59 56 53 49 48 49 46 40 38 37 35 32 27
17 18 17 16 14 14 14 13 12 11 11 11 12 13 15 18 22 23 25 29 33 36 38 37 35 34 35 35 37 38 39 41 41 42 41 39 38 38 38 40 42 45 46 46 47 49 50 51 55 56 57 57 55 52 51 51 48 44 41 39 38 35 31
23 22 20 18 17 16 15 14 13 12 13 12 12 14 15 17 20 23 24 28 31 35 39 37 34 33 34 36 38 39 39 40 40 39 38 36 36 38 40 43 45 47 48 48 48 50 52 55 56 54 55 56 56 55 56 55 52 48 45 41 40 39 36
26 25 22 22 21 19 17 16 15 15 17 16 14 14 15 16 19 21 23 25 28 32 37 37 35 34 34 35 36 37 37 37 37 37 36 35 36 38 41 44 46 47 48 48 49 51 52 55 56 56 56 56 55 54 54 55 54 53 51 47 45 43 41
28 28 27 26 24 21 20 20 17 16 18 17 15 15 15 15 17 20 21 22 25 29 34 36 35 34 33 34 35 35 35 35 35 36 37 38 38 39 41 45 47 48 47 48 51 52 52 53 55 55 55 55 54 51 49 49 51 52 53 53 50 47 45
31 31 31 31 28 26 26 25 20 19 18 17 17 16 15 15 16 18 19 20 24 27 31 34 35 34 34 34 35 37 37 37 36 37 39 40 40 40 42 44 46 47 47 48 51 52 52 53 53 53 53 52 51 49 46 45 46 49 52 54 54 52 48
35 34 33 34 33 32 32 30 25 22 20 19 19 19 18 16 16 17 18 20 23 28 32 35 36 35 34 33 33 35 37 37 37 38 39 40 40 40 41 43 45 47 47 48 50 51 53 54 52 50 49 48 46 45 44 43 44 46 49 53 55 55 52
37 37 35 36 37 36 36 35 32 27 23 21 20 21 23 22 20 19 19 19 21 24 29 32 34 34 34 33 32 33 34 35 35 34 35 37 37 38 40 42 45 47 46 46 47 49 50 51 48 47 46 45 44 43 43 43 43 44 45 49 53 54 54
37 37 37 37 39 39 39 39 38 35 31 27 23 23 25 25 23 22 21 21 21 22 23 25 27 28 31 32 33 33 33 34 33 32 32 34 36 37 40 42 43 44 43 43 46 47 48 48 47 47 47 47 46 45 43 43 44 44 43 45 48 50 51
37 37 37 37 39 40 39 39 40 39 38 35 31 28 27 26 24 23 22 22 23 24 24 24 24 25 27 29 31 32 33 34 36 35 34 34 36 39 40 41 43 43 42 44 46 47 49 50 50 49 50 51 51 49 46 44 44 43 43 45 48 48 50
38 39 38 38 39 40 40 40 40 40 39 39 37 35 33 31 29 27 26 25 25 26 26 24 24 24 26 27 28 30 31 34 38 40 40 39 39 42 43 44 45 45 44 46 48 49 51 53 53 53 54 54 52 49 47 47 46 45 44 44 46 47 49
40 41 40 39 40 40 41 41 41 41 41 40 40 39 38 37 36 34 33 33 32 33 32 29 27 25 25 26 28 29 30 33 35 38 41 42 42 44 46 47 46 46 46 48 49 51 53 54 54 53 53 51 49 47 46 46 47 48 47 45 46 48 52
43 43 42 41 42 42 43 43 42 42 42 41 41 41 40 39 38 37 37 38 38 39 39 36 34 32 30 31 33 32 32 33 34 35 38 41 43 45 46 46 45 44 45 47 49 51 51 51 49 49 48 48 47 47 47 47 49 51 52 51 49 49 50
46 45 44 44 44 44 44 44 43 43 43 42 42 42 41 40 40 38 38 39 40 40 42 42 40 39 38 38 39 37 35 37 38 37 36 38 40 43 44 44 42 42 43 44 46 46 45 44 43 42 42 43 43 44 45 46 49 52 54 54 53 51 49
48 48 47 46 45 44 43 43 43 43 43 43 42 42 41 41 40 39 39 40 40 41 42 40 38 37 36 35 35 34 33 34 35 35 35 37 39 40 42 42 42 41 39 39 39 39 39 39 39 39 39 39 39 40 40 41 43 45 47 49 51 52 53
50 49 48 47 45 45 44 44 43 43 43 43 43 43 43 43 42 41 40 39 40 40 39 35 33 33 31 29 29 28 27 27 28 28 29 31 32 33 34 35 37 39 37 35 34 34 35 36 37 38 39 40 40 41 41 41 41 42 42 43 44 46 50

ECMWFFLT1_prec_cthk_027.txt.gz
RH
32 35 33 29 28 28 30 32 33 34 35 36 37 37 35 31 24 24 25 20 16 15 14 14 14 14 15 15 16 16 15 15 14 14 14 14 15 17 20 22 23 21 21 24 23 20 19 20 25 30 29 27 27 30 32 34 39 40 38 38 40 41 40
36 36 35 31 29 27 28 30 32 33 34 36 38 39 38 35 28 24 23 18 15 14 14 14 14 14 15 15 15 16 15 14 14 14 14 14 14 15 17 20 22 20 19 21 25 25 22 19 20 22 25 25 26 29 31 33 37 40 38 37 39 41 38
37 34 32 32 30 27 27 28 29 31 33 34 36 37 37 36 33 28 23 18 15 13 13 14 14 14 14 15 15 16 15 15 14 13 13 13 14 15 16 18 19 20 19 18 21 25 26 23 19 18 20 22 24 27 28 31 35 38 38 37 38 40 37
33 33 33 33 32 30 27 28 28 29 31 32 35 35 36 37 36 34 27 19 14 12 12 12 13 14 14 14 15 15 15 15 14 14 13 13 14 15 16 17 17 18 19 18 17 21 25 27 24 19 18 20 21 24 26 28 31 35 37 37 38 39 38
31 33 36 34 33 31 28 27 28 30 30 30 32 34 36 37 38 38 33 25 16 11 10 10 11 12 13 13 14 14 14 14 14 14 13 14 16 16 16 17 17 18 18 19 19 19 21 25 26 23 20 20 20 22 23 25 28 31 35 37 39 38 37
30 32 35 34 33 29 27 28 29 30 30 29 30 33 34 36 37 37 36 32 25 16 11 9 11 11 12 12 12 13 13 13 14 14 14 14 16 17 18 17 19 19 19 20 21 21 20 22 25 25 24 23 22 23 25 25 26 29 32 36 39 38 36
31 32 33 33 33 31 29 28 29 29 29 28 29 31 33 34 35 36 36 35 31 23 16 11 10 10 10 11 11 12 12 13 14 14 15 16 17 18 19 19 20 20 19 20 20 21 21 21 23 25 26 26 25 25 26 25 25 28 31 33 38 39 37
33 32 31 32 34 35 33 31 31 28 26 27 28 29 31 32 34 35 35 35 34 31 24 17 12 10 9 10 12 13 14 15 16 17 18 18 19 20 21 22 22 22 21 21 20 20 21 21 22 23 26 28 28 27 28 27 26 27 29 32 35 38 38
31 29 29 32 33 34 35 35 32 28 27 28 29 30 31 31 32 33 34 35 36 35 32 27 21 16 13 13 14 15 15 17 18 19 20 21 22 23 23 24 24 24 23 22 22 21 21 22 22 23 24 27 28 28 27 27 26 25 27 29 31 35 37
28 28 30 33 33 33 35 36 32 29 30 31 31 30 30 29 29 31 33 36 37 38 38 36 33 29 22 18 18 19 19 19 20 20 21 22 23 24 24 25 26 25 24 24 24 24 23 23 23 24 24 25 27 28 27 27 26 25 25 26 28 31 34
30 31 32 35 34 33 34 34 31 31 31 32 31 29 28 28 29 30 32 34 36 38 40 41 40 38 33 25 23 24 24 23 23 24 24 24 24 25 25 25 27 27 26 25 25 26 25 24 24 25 25 24 25 26 27 26 26 25 24 24 25 28 31
30 31 32 32 30 30 31 32 32 33 33 33 32 28 27 29 31 31 31 33 35 37 39 41 41 41 39 35 30 28 27 28 28 29 29 28 28 28 27 27 29 31 29 26 24 24 25 24 23 22 23 23 23 24 24 24 24 23 23 22 23 25 28
25 28 31 30 29 30 32 33 34 35 35 35 35 32 29 29 30 31 31 33 34 35 37 39 39 40 41 41 38 33 30 29 30 32 33 33 32 32 32 31 33 35 34 30 26 24 24 26 24 21 21 21 20 21 21 22 22 21 21 21 21 22 24
23 27 29 29 30 31 33 34 35 37 37 36 35 35 32 31 30 30 31 31 33 34 35 37 38 40 42 44 45 41 35 32 31 33 35 37 37 36 35 35 36 37 38 36 32 29 28 29 29 25 23 23 22 22 21 21 21 22 21 21 20 21 22
23 26 28 29 31 32 33 35 35 35 38 37 35 35 34 32 32 32 32 33 33 34 34 36 39 41 43 47 47 45 42 38 35 35 37 39 39 38 37 38 39 40 41 40 38 36 33 34 36 34 30 28 27 26 25 24 24 23 22 22 22 21 23
22 25 28 29 32 32 31 32 33 32 33 34 34 35 34 33 32 32 33 34 34 34 34 34 37 41 44 46 47 46 47 45 40 38 39 40 41 39 37 38 39 40 41 41 41 40 37 36 40 42 40 37 34 32 31 30 28 26 24 23 22 21 22
20 24 27 27 29 31 29 28 28 27 27 27 28 30 33 34 33 33 32 33 34 34 33 33 34 38 43 46 48 48 49 46 43 40 40 41 41 40 38 39 40 40 40 41 43 43 41 40 42 44 46 46 43 40 37 35 33 31 29 26 24 23 22
17 19 22 22 23 25 25 25 25 24 23 23 22 24 28 31 32 33 32 32 32 32 32 32 32 35 41 45 47 49 48 46 43 41 41 41 41 40 40 40 41 40 40 40 42 43 42 42 42 43 47 50 49 47 45 41 37 34 33 30 27 27 25
14 16 19 19 18 19 21 25 27 25 23 22 22 22 24 27 30 31 31 31 30 30 31 31 30 32 38 43 46 47 46 45 42 41 40 39 39 40 41 41 40 39 39 39 41 42 42 41 41 42 45 48 50 50 49 47 41 37 35 34 31 29 28
13 14 15 15 16 17 18 22 24 22 19 18 18 18 20 25 28 29 28 28 29 30 30 30 29 31 36 40 44 45 45 43 41 40 39 38 38 39 39 39 38 37 37 39 41 43 43 43 44 44 45 46 48 49 49 48 46 42 38 36 36 33 31
11 11 11 12 13 16 18 19 20 19 18 17 17 16 17 20 24 26 26 27 28 29 29 29 31 33 34 37 40 42 43 42 39 38 38 39 38 38 36 36 36 37 39 42 45 45 45 46 46 47 47 47 49 50 49 49 49 46 41 38 37 37 36
11 11 12 13 13 15 16 15 14 15 15 14 15 16 15 16 19 22 24 26 28 28 28 29 32 34 34 33 34 36 37 37 37 37 37 38 37 36 35 35 37 40 43 45 48 49 49 49 49 50 51 50 50 50 49 50 50 48 45 43 41 39 38
13 14 16 16 15 15 15 14 15 16 14 12 12 14 15 14 15 18 21 24 27 27 28 29 32 33 34 33 34 35 37 38 37 37 37 37 37 36 36 38 40 42 43 45 48 50 50 50 51 52 54 53 51 49 48 49 50 49 48 48 47 45 41
19 18 19 19 18 18 18 19 19 18 15 13 13 14 15 14 14 16 19 22 24 26 28 31 33 33 34 36 38 40 41 41 41 40 39 38 38 39 41 43 44 45 45 45 47 50 51 52 51 51 52 52 51 49 46 47 49 50 50 50 49 49 47
22 21 20 19 19 22 21 19 16 14 14 14 15 16 17 15 15 17 19 20 22 23 26 31 34 35 36 38 41 43 43 43 42 42 41 40 41 43 45 46 46 46 46 45 46 48 49 51 51 51 50 50 51 50 48 47 49 51 51 50 50 50 49
24 22 21 20 21 22 21 19 19 21 21 20 20 21 21 19 18 18 20 22 21 22 25 29 32 35 37 39 42 44 44 42 42 43 43 43 44 45 46 45 45 45 44 44 46 48 49 50 50 50 51 50 50 50 49 49 50 51 51 50 51 51 51
26 25 23 23 23 23 22 22 26 27 25 23 22 20 20 21 21 20 20 23 23 23 25 27 30 34 37 39 42 44 44 42 42 43 44 43 43 43 44 45 45 45 45 46 48 49 49 51 50 49 49 50 50 50 50 49 50 50 48 47 47 48 50
28 27 26 26 26 26 26 27 29 29 28 27 25 22 21 21 22 22 22 23 24 24 24 26 29 33 36 38 41 42 43 43 43 42 42 41 41 43 45 46 47 49 49 50 50 50 50 51 51 49 49 49 50 51 51 51 51 51 48 44 44 46 48
31 30 29 28 27 28 29 30 32 32 31 30 28 27 25 23 23 24 24 24 24 24 24 24 27 31 35 37 39 41 43 45 46 45 44 43 44 45 45 46 48 50 51 52 52 52 52 52 52 52 51 51 51 51 49 49 49 48 46 43 42 45 48
32 32 32 30 29 30 31 32 34 34 34 33 30 26 25 25 25 25 26 27 26 25 24 24 25 29 32 34 36 40 42 45 48 49 49 48 47 46 45 45 46 47 49 50 50 50 50 50 51 52 51 51 50 49 46 45 45 44 43 42 44 47 49
34 34 35 34 33 33 32 32 34 34 35 35 32 27 27 29 29 29 29 30 29 27 27 26 26 29 31 33 35 39 41 44 48 51 51 51 50 49 48 49 49 48 48 48 47 47 47 47 48 49 49 48 49 47 44 43 42 42 42 43 47 50 52
35 35 36 35 34 35 34 32 33 34 35 35 34 32 30 31 31 32 32 32 31 31 30 29 29 30 31 32 36 39 40 43 46 48 49 50 49 48 48 49 48 48 47 45 44 43 44 44 44 45 46 47 47 47 46 45 44 43 43 43 46 50 52
36 36 37 37 37 38 36 34 34 35 35 36 36 35 34 33 33 33 32 32 33 32 29 28 30 31 31 33 35 37 39 42 44 45 46 47 48 47 47 47 46 44 44 43 42 42 43 44 44 45 46 46 46 45 46 45 44 44 45 45 47 50 52
37 37 37 38 38 38 38 37 36 35 36 37 37 37 37 36 35 35 34 33 33 32 30 30 31 32 33 34 35 36 37 38 40 41 42 44 45 45 44 44 44 43 43 43 43 43 44 44 46 48 49 48 47 46 45 45 45 46 48 49 49 50 51
38 37 37 38 38 38 38 38 37 36 36 38 39 38 38 38 37 36 35 35 34 34 34 34 34 34 34 35 35 36 36 35 36 37 38 38 38 39 40 40 41 41 42 43 44 44 44 44 46 48 48 48 47 46 46 47 48 49 50 50 48 47 46
39 38 37 37 38 38 38 38 37 36 36 37 38 38 37 37 37 36 36 35 35 35 35 36 37 37 36 35 35 35 34 34 33 34 35 35 34 35 36 37 38 39 39 40 41 42 42 43 45 45 45 45 45 45 46 48 49 50 49 47 44 42 41
40 38 37 37 38 38 38 38 37 37 36 36 37 36 36 37 36 36 36 37 36 36 36 36 37 37 37 37 36 36 36 36 36 36 36 35 35 34 35 35 36 37 37 37 39 40 40 41 41 42 42 42 42 42 43 44 44 44 43 42 41 40 40
41 40 40 40 41 40 39 39 38 39 39 39 38 38 38 37 36 36 37 37 37 38 38 37 36 36 36 36 36 36 36 37 38 39 39 39 38 38 36 36 35 36 36 35 32 31 33 35 35 37 39 40 40 40 39 40 40 40 40 39 40 40 41

ECMWFFLT1_prec_cthk_030.txt.gz
RH
40 39 36 38 41 38 35 35 35 34 36 42 43 40 38 35 31 30 26 23 21 19 20 21 20 19 19 19 17 16 16 15 14 13 14 14 14 16 18 19 21 21 21 22 21 20 21 23 24 24 24 23 24 25 26 27 30 34 37 38 38 39 37
35 39 40 39 37 34 33 34 35 35 39 46 45 40 40 38 32 29 26 23 20 18 17 17 17 17 16 17 17 16 16 15 14 13 13 13 13 14 15 16 18 20 20 21 22 22 22 23 24 23 23 24 23 24 25 26 28 30 34 37 38 39 37
31 35 39 40 36 33 35 36 36 37 42 47 43 38 39 38 34 31 28 25 21 19 17 13 14 14 14 14 15 15 14 14 14 14 13 13 12 13 14 14 15 18 20 21 23 26 26 25 25 24 25 24 23 23 23 25 27 29 32 35 38 39 38
32 35 37 39 38 37 38 37 37 38 41 41 38 36 37 37 36 34 30 27 23 20 17 13 12 12 12 12 12 12 13 13 13 13 13 13 13 12 13 13 15 17 20 21 22 25 28 28 27 26 26 25 24 23 21 22 24 27 30 33 36 39 39
33 36 36 38 41 41 39 36 36 36 35 35 35 36 37 37 38 35 31 29 25 19 15 13 12 12 11 11 11 11 11 12 12 13 13 13 13 12 12 13 14 16 18 23 24 24 26 28 29 28 28 27 26 24 23 21 21 24 27 31 34 36 39
32 34 35 39 42 42 38 33 33 33 31 33 35 35 36 37 37 36 34 31 28 22 17 14 13 13 12 12 11 11 11 12 12 12 12 13 13 12 11 12 14 16 18 22 25 26 26 27 29 30 30 30 28 28 26 23 21 22 24 27 30 33 36
31 31 34 39 39 37 36 34 36 37 33 35 39 36 34 35 37 37 36 34 31 27 21 17 14 13 13 12 11 11 11 11 11 12 12 12 13 12 12 13 15 17 19 22 24 26 27 26 26 28 30 30 29 29 28 25 23 22 22 24 26 29 32
27 29 31 34 34 34 37 37 37 35 32 36 42 38 33 33 34 36 36 36 35 32 27 22 17 14 12 11 11 11 11 11 11 12 11 12 13 14 14 16 17 19 22 25 26 27 27 26 25 26 28 29 29 28 27 27 26 25 25 24 24 25 28
26 27 26 29 33 35 37 38 35 31 31 34 35 33 32 32 32 33 35 37 37 36 33 28 21 17 13 12 12 12 12 12 11 11 12 13 15 17 18 19 21 23 25 28 29 29 28 27 26 25 26 28 28 27 26 26 27 27 27 27 25 24 25
27 30 28 29 36 39 38 37 34 32 32 31 27 27 30 31 31 32 33 34 36 37 37 34 27 22 17 15 14 14 13 14 14 14 15 16 18 20 21 22 23 25 27 29 31 32 30 29 28 27 26 25 26 26 25 24 26 27 28 28 27 25 24
29 31 30 31 36 39 39 38 35 34 35 31 26 26 28 30 30 30 30 31 33 35 37 37 35 31 25 19 16 15 15 15 17 18 18 19 20 21 23 24 25 26 27 30 31 31 31 31 29 28 26 24 24 24 24 23 24 26 27 28 28 27 26
32 31 28 30 34 36 35 35 34 35 35 31 27 27 28 29 30 29 28 29 30 33 35 36 38 37 34 27 21 19 18 18 19 21 21 21 22 23 24 26 26 27 28 30 31 31 31 31 29 27 25 24 23 23 23 22 23 24 25 26 27 27 25
32 31 28 30 33 33 31 32 34 34 31 29 29 30 29 30 30 30 28 28 29 30 32 34 37 37 38 36 30 27 25 21 20 21 22 22 23 24 26 27 28 29 31 31 30 31 30 29 28 25 24 22 21 20 21 21 22 22 22 23 23 24 23
28 30 29 30 32 32 32 34 37 35 32 30 32 33 33 32 33 32 30 30 30 30 30 33 35 35 37 39 36 33 30 26 23 23 24 23 24 26 27 29 30 32 34 33 32 32 31 29 28 27 25 24 22 21 22 22 22 23 23 22 22 23 23
28 30 30 30 31 32 33 35 37 37 35 34 36 37 36 34 35 34 33 32 32 31 30 31 33 35 36 37 37 36 35 31 27 27 28 27 27 28 29 31 33 34 36 35 34 33 32 32 32 31 29 28 27 26 25 26 25 26 25 25 23 23 24
28 29 30 31 31 31 31 32 34 36 37 37 38 38 36 35 35 34 33 33 33 32 31 30 31 32 33 33 35 37 37 35 33 33 34 33 31 31 32 34 37 38 39 39 38 37 36 36 37 37 35 34 32 31 31 31 31 30 29 29 28 27 27
25 27 31 32 30 29 29 30 31 33 34 35 35 35 35 35 34 33 33 33 33 33 33 33 32 32 32 34 36 38 39 40 39 39 40 39 36 34 35 37 39 41 42 43 42 41 40 39 40 40 39 38 37 35 35 35 35 34 33 33 33 33 32
22 25 28 30 29 27 27 28 28 28 31 33 34 34 34 34 32 31 32 31 32 33 34 34 34 34 34 34 35 38 40 41 43 44 44 44 42 38 36 38 40 41 42 42 43 43 41 40 41 41 40 40 39 39 39 38 37 36 36 36 35 35 36
20 22 24 26 28 27 27 28 27 27 30 32 34 35 35 33 32 31 30 29 29 31 32 33 33 33 33 33 33 34 38 42 44 45 46 47 47 43 39 39 40 41 41 40 41 42 42 40 40 41 40 39 39 40 41 41 39 38 38 39 39 39 39
20 24 25 25 25 27 29 30 31 33 33 31 32 34 33 31 31 30 29 28 28 29 32 33 33 32 32 32 32 31 33 38 44 46 48 49 49 46 43 40 39 39 39 40 40 40 40 40 39 39 39 38 37 38 41 42 42 42 41 41 42 43 42
19 23 25 24 23 26 29 30 33 36 34 28 27 30 30 28 28 29 28 28 28 29 30 31 32 32 32 32 32 31 30 35 41 45 47 48 49 47 43 41 39 38 39 40 40 40 39 39 39 39 38 38 38 39 40 41 43 45 44 44 44 45 45
19 21 23 25 26 26 26 28 30 32 32 29 25 25 26 24 24 26 27 28 29 29 30 31 32 32 32 32 32 31 31 34 39 42 44 45 46 44 42 40 40 40 40 41 41 42 40 39 39 39 40 40 40 40 39 40 43 45 46 46 48 48 47
26 25 24 28 29 27 25 25 26 26 28 30 26 23 24 22 21 22 24 25 28 29 30 31 32 32 32 32 32 32 32 34 37 40 41 41 41 41 40 41 42 43 44 44 44 44 42 40 40 39 40 40 41 41 40 42 44 45 46 47 48 49 49
32 29 25 28 30 28 24 22 21 19 20 23 23 22 23 22 20 20 20 21 24 27 29 31 32 32 32 32 31 32 33 35 36 38 40 40 41 42 43 43 44 45 46 46 45 45 43 42 42 41 42 42 42 43 44 45 46 47 47 48 49 51 51
33 32 29 30 31 28 23 20 19 19 19 23 25 25 24 23 20 18 17 18 20 22 26 30 31 31 31 32 30 31 34 36 38 40 42 43 45 46 46 45 45 47 47 47 47 46 46 45 45 45 45 46 46 47 47 47 47 48 48 49 52 53 52
29 30 29 28 28 26 22 20 23 25 24 24 24 24 24 23 21 19 16 15 17 18 21 25 27 28 29 30 30 30 34 37 39 42 45 46 47 47 47 46 46 47 48 48 48 48 47 46 46 47 48 49 49 49 49 48 49 49 49 49 52 54 54
26 27 27 26 25 26 24 24 26 28 26 23 22 22 24 23 20 19 18 16 16 17 18 20 22 23 25 28 29 29 32 36 39 41 46 48 49 48 48 48 48 48 49 50 50 50 48 47 47 47 48 49 49 49 48 48 49 49 49 49 51 53 54
27 27 27 26 25 27 28 27 27 27 27 26 25 25 26 26 23 21 19 18 18 18 18 19 20 21 23 26 28 28 30 35 38 40 44 47 49 50 49 48 49 50 50 51 52 51 50 49 49 49 50 50 50 49 50 50 50 50 50 50 51 52 53
30 30 29 27 26 27 27 28 29 29 28 28 26 23 22 25 26 23 21 21 21 21 20 21 22 22 23 24 26 26 28 33 37 40 42 45 47 48 48 48 49 50 52 51 52 52 51 52 51 51 51 51 50 50 49 49 50 50 49 49 50 51 51
30 30 29 28 27 28 28 28 29 29 29 29 28 23 20 24 26 25 24 24 23 22 21 22 23 23 23 24 26 26 27 30 34 38 40 43 44 45 47 48 49 50 51 51 51 51 51 51 51 50 50 49 48 48 47 46 46 46 46 47 49 49 49
30 31 31 29 29 30 29 28 29 29 29 29 29 26 24 26 27 26 27 27 25 23 23 22 23 25 24 25 26 28 28 29 31 35 39 41 42 44 46 49 49 50 51 51 51 51 50 50 51 50 48 48 48 47 47 46 45 44 44 45 46 47 47
34 34 33 32 32 32 31 30 30 30 30 30 31 29 29 30 30 30 30 31 28 26 24 24 25 26 26 26 27 28 29 30 30 32 35 38 39 41 44 47 48 49 50 50 51 51 51 51 51 51 50 50 50 49 47 46 46 46 46 46 45 45 46
37 38 36 35 35 34 34 33 33 32 32 32 32 32 32 33 33 32 31 32 30 28 26 26 28 29 28 28 29 29 29 30 30 31 33 35 37 39 41 44 46 48 48 49 50 50 50 50 50 51 51 51 50 50 48 47 47 47 47 47 46 46 46
39 39 38 38 38 37 36 36 35 34 35 34 33 34 34 34 35 34 34 33 33 31 28 28 30 31 30 30 30 31 31 31 31 31 32 33 35 38 40 41 43 44 46 47 48 48 49 49 50 50 51 51 50 49 47 47 47 47 47 46 45 46 47
40 40 39 38 38 38 37 37 37 37 37 35 34 34 34 35 35 34 34 34 34 33 31 30 30 31 31 31 31 31 32 32 32 33 33 33 34 36 39 39 40 42 43 43 44 46 47 48 48 48 47 48 48 46 45 44 45 45 45 44 45 46 47
40 40 40 38 37 38 37 37 38 38 37 36 35 33 33 33 34 34 35 35 35 35 34 32 32 31 31 31 31 31 31 32 33 33 34 35 34 35 36 37 38 40 41 41 41 42 43 42 42 42 42 43 43 42 42 42 42 43 43 43 43 44 44
41 41 41 38 36 37 38 37 37 38 37 37 36 34 32 32 31 32 33 34 35 35 35 35 34 33 32 31 31 31 32 32 33 33 34 36 35 35 35 36 36 37 38 37 37 38 38 38 37 37 38 38 39 38 38 38 38 39 39 39 39 40 40
43 42 41 40 39 39 39 38 38 38 37 37 36 35 33 32 31 31 32 34 36 36 35 36 36 35 34 34 33 32 34 36 37 36 36 36 37 37 37 36 36 36 36 36 36 37 36 36 36 36 36 36 36 36 36 36 36 36 36 36 37 38 38

ECMWFFLT1_prec_cthk_033.txt.gz
RH
42 45 44 44 44 42 41 41 38 35 36 37 34 31 29 28 30 30 29 27 27 27 28 28 27 25 22 19 17 17 16 15 14 13 13 12 11 11 11 13 14 16 19 20 19 19 18 19 20 22 24 26 26 26 25 26 27 31 34 35 35 36 36
35 39 39 40 40 41 42 41 38 36 36 35 33 31 29 28 29 30 30 28 26 26 27 27 27 25 21 17 16 16 15 14 14 13 12 12 11 11 12 12 14 15 17 18 19 19 19 19 18 19 21 23 25 26 26 26 27 28 30 33 35 35 35
32 34 34 34 37 39 42 42 39 37 36 33 31 31 30 31 30 29 30 29 26 26 26 26 26 24 20 17 15 15 14 13 13 13 12 11 11 11 12 13 14 15 16 17 19 19 19 19 18 19 19 21 22 23 25 26 26 26 27 30 33 34 34
30 31 30 31 36 39 41 41 39 37 35 32 31 32 33 35 34 30 29 29 27 25 25 25 24 24 22 18 15 14 14 13 13 13 12 11 11 12 13 14 14 16 16 17 18 18 19 19 19 19 20 20 20 20 21 22 23 24 25 26 29 32 34
28 30 30 30 33 38 40 41 39 36 36 35 35 35 35 36 36 31 29 30 29 26 24 24 24 23 23 21 18 14 13 12 12 12 12 12 12 13 13 14 14 14 15 15 16 18 19 20 20 22 22 21 21 21 21 21 20 21 22 23 25 28 31
26 29 30 29 31 36 37 39 39 37 38 38 37 36 34 36 37 33 29 29 30 27 25 24 24 24 23 22 20 17 14 13 13 12 12 12 12 13 13 13 14 13 13 13 14 16 18 20 22 23 23 24 25 25 24 24 23 22 21 21 22 24 27
24 27 29 29 33 36 36 38 39 38 39 37 35 34 32 33 34 31 29 29 29 29 27 25 24 24 23 22 21 18 16 15 13 13 13 12 12 12 12 13 13 12 12 12 14 15 18 21 23 25 26 26 26 26 26 25 25 24 23 22 22 23 25
22 26 30 31 35 38 37 38 39 38 37 35 32 31 29 30 31 28 27 28 29 30 28 26 24 23 23 22 20 19 17 15 14 14 13 13 13 12 12 12 12 12 13 14 15 17 20 23 25 27 28 28 27 26 26 25 25 25 24 23 23 23 24
22 26 30 32 35 38 39 39 39 36 34 32 31 31 30 32 32 29 28 28 29 30 29 27 24 22 22 22 21 19 18 17 16 15 15 14 14 13 12 13 14 15 15 16 17 19 21 23 26 27 28 29 29 28 26 25 24 24 23 23 23 23 24
23 25 26 28 31 36 38 39 38 36 36 35 33 33 32 32 33 31 29 30 30 32 32 31 27 24 22 20 19 19 19 18 17 16 16 15 14 14 14 15 17 18 18 18 20 21 22 24 26 29 29 28 28 28 26 24 23 23 23 22 23 23 23
23 24 25 26 28 33 36 37 37 37 37 36 34 35 35 34 34 32 30 30 31 33 35 35 32 29 25 21 19 18 19 18 18 18 17 17 16 17 17 18 20 21 22 21 22 23 24 25 27 29 30 28 25 25 24 23 22 21 21 21 21 21 21
20 21 24 24 27 31 33 34 35 36 36 35 36 39 39 36 34 32 30 31 31 32 35 37 37 35 32 27 23 21 20 20 20 21 21 20 20 20 20 21 22 24 24 24 24 25 26 26 27 28 28 27 25 24 23 22 22 21 20 19 19 19 19
22 23 24 24 28 33 35 35 36 36 35 35 37 40 38 34 32 30 29 30 30 31 34 37 38 39 37 35 32 28 24 22 22 22 22 21 21 21 22 23 24 25 25 25 26 27 27 27 27 28 26 25 25 23 21 20 20 20 19 19 19 18 18
29 28 28 27 28 32 35 37 38 38 38 38 39 39 36 31 30 29 28 29 29 30 32 35 37 38 40 40 38 35 30 25 23 21 21 21 20 21 22 24 25 26 26 27 27 29 28 27 27 26 25 24 23 22 22 22 22 22 22 21 21 21 21
31 29 30 29 28 30 35 37 39 40 40 40 40 38 33 30 30 30 29 29 29 29 31 33 35 38 40 40 40 39 35 30 26 24 23 22 21 21 23 24 26 26 28 28 28 29 29 27 27 26 25 24 24 25 26 27 27 26 27 26 27 27 27
29 28 31 30 29 31 34 36 37 38 38 40 39 37 33 32 33 32 31 31 30 31 31 31 34 36 38 39 40 41 39 35 31 27 25 24 23 22 23 25 26 27 29 29 29 30 29 28 28 27 26 27 29 29 30 30 29 30 30 30 30 31 32
29 31 34 34 33 33 33 34 36 36 37 39 38 37 36 36 36 35 34 34 33 32 32 33 34 36 38 40 40 41 41 39 36 32 28 25 24 24 25 26 27 28 29 30 31 31 30 30 30 29 29 31 32 32 31 31 31 32 33 33 33 34 34
36 39 41 40 36 32 31 33 34 36 39 40 39 38 38 38 38 37 37 36 35 34 35 36 37 38 39 41 42 43 43 44 43 40 36 31 30 30 31 31 31 31 32 33 34 33 33 32 33 32 33 34 33 32 32 31 32 34 35 36 36 36 36
36 39 40 38 34 31 32 34 34 36 38 40 39 38 37 36 37 37 37 37 37 36 37 37 38 39 40 41 42 43 43 43 44 43 43 40 38 36 36 37 37 35 34 36 38 38 36 34 33 33 35 35 34 32 32 32 32 34 37 38 40 41 41
29 32 33 32 31 32 33 33 34 35 36 37 39 40 39 38 37 37 37 36 37 37 37 37 37 37 38 39 39 40 40 40 40 40 42 44 45 43 42 43 43 40 38 39 41 42 40 37 35 33 33 33 33 32 32 32 33 35 38 40 42 45 45
29 32 33 32 30 29 30 29 29 30 32 33 35 36 38 37 35 34 34 34 35 36 36 37 37 37 37 37 38 38 37 37 37 36 37 41 47 49 49 48 48 46 43 42 42 41 38 38 36 34 32 32 34 34 33 32 34 36 39 41 44 47 48
33 35 35 36 34 29 27 27 26 26 27 28 29 30 32 33 32 31 31 31 32 34 36 37 37 37 37 37 37 37 37 37 37 36 35 38 44 49 51 51 51 49 47 43 41 39 38 38 38 37 35 35 35 35 33 33 36 38 40 43 47 49 51
34 36 36 36 36 32 28 27 26 25 25 26 27 28 29 30 30 30 29 28 28 30 32 35 36 37 37 37 37 37 38 38 37 36 35 37 42 45 48 49 50 50 47 43 40 39 39 39 39 40 39 38 37 36 35 36 38 40 42 45 48 50 52
31 33 35 34 34 32 29 27 27 27 27 26 25 25 26 28 30 30 30 29 27 26 27 29 34 36 37 37 36 36 37 38 37 36 36 37 39 41 43 44 44 44 43 40 40 40 41 42 42 41 40 39 38 37 37 38 41 42 43 46 48 50 52
29 30 32 33 32 31 29 29 30 30 29 29 28 27 25 24 25 27 28 29 29 29 27 26 29 32 35 36 35 35 36 37 37 36 36 36 37 38 39 39 39 40 40 41 42 43 43 43 43 42 41 40 40 40 40 41 43 44 45 47 50 52 55
33 30 31 33 34 33 31 33 33 31 30 32 33 32 29 24 21 22 25 25 27 28 28 26 26 28 30 33 35 35 35 34 35 35 36 38 40 40 41 41 41 41 41 42 43 43 43 43 43 43 42 42 41 41 41 42 45 47 49 50 52 53 55
35 32 33 36 37 35 32 31 30 27 26 26 25 26 28 26 22 21 22 22 23 24 26 26 25 24 26 29 31 33 34 33 33 33 34 38 41 43 44 44 44 44 44 44 44 44 44 43 43 43 43 43 43 43 43 44 46 48 49 50 52 53 54
35 32 31 33 35 36 34 31 28 25 24 21 18 18 22 24 23 21 20 20 20 19 20 21 21 20 21 23 25 29 32 32 31 31 32 35 39 42 43 44 45 45 45 45 44 44 44 45 45 45 46 47 47 47 47 48 49 49 50 52 53 54 55
35 33 31 30 32 35 34 33 32 30 28 25 21 19 19 21 23 24 22 19 17 16 16 17 18 18 18 19 20 23 27 29 29 29 30 32 35 39 41 43 44 45 45 45 45 46 46 47 48 48 49 49 49 49 50 51 52 52 52 53 53 53 53
36 34 33 31 32 33 33 34 35 34 32 29 26 23 22 25 27 27 25 22 19 17 17 18 18 19 19 19 20 20 22 25 26 27 28 29 32 36 39 41 43 44 45 46 46 47 48 50 50 51 52 51 51 51 51 51 51 52 52 52 52 51 50
37 35 33 32 33 32 31 33 34 34 33 32 29 28 29 31 31 29 27 25 23 21 21 20 19 20 21 21 21 20 22 23 24 26 27 28 30 32 36 40 41 42 44 45 46 47 48 50 51 52 53 53 53 53 52 51 51 51 51 50 49 48 47
36 34 33 32 33 32 30 32 33 33 33 32 31 31 32 32 33 31 29 28 27 24 23 21 21 20 21 22 22 21 23 24 25 26 27 29 30 31 33 37 40 42 44 44 45 45 46 48 49 50 52 53 53 53 53 52 51 49 48 47 48 48 48
34 34 35 34 34 32 31 31 32 33 33 31 31 32 32 32 32 32 30 29 29 27 25 23 22 23 23 23 22 23 24 25 26 28 29 30 31 31 33 35 38 40 42 43 43 43 44 45 47 48 50 50 51 51 51 50 50 48 47 48 49 49 48
35 34 36 37 35 34 31 31 32 34 33 31 31 31 31 30 30 30 29 27 27 26 26 26 25 26 26 25 23 24 25 26 27 29 30 31 31 32 33 35 36 38 40 41 41 41 42 43 45 46 47 48 48 48 49 48 48 48 48 48 48 48 47
37 36 37 38 37 35 33 32 33 34 33 31 32 32 31 30 30 30 29 29 28 27 28 28 28 29 29 28 26 26 26 27 28 29 30 32 33 33 34 34 35 36 37 38 39 39 40 41 43 44 44 45 46 47 47 47 47 47 47 47 47 46 45
41 38 38 38 37 36 34 33 33 33 33 32 33 33 32 32 31 30 30 31 32 32 30 30 30 31 31 30 29 29 28 28 29 30 31 32 33 34 34 35 35 35 35 36 37 38 39 40 42 43 43 44 44 44 44 45 45 45 45 45 44 43 42
46 42 40 39 39 38 36 35 34 33 34 35 35 33 32 32 31 31 32 32 33 35 33 32 33 33 32 31 31 31 30 31 31 31 31 32 33 34 35 36 36 37 38 38 38 38 39 39 40 41 41 42 42 42 42 42 42 42 41 41 40 40 39
48 44 42 40 41 41 39 38 37 37 36 37 36 35 33 33 32 33 33 33 34 36 35 35 37 37 35 33 33 33 32 32 33 33 33 33 35 35 35 36 37 38 39 40 40 39 40 39 39 39 39 40 40 39 39 38 38 38 38 38 38 38 38

ECMWFFLT1_prec_cthk_036.txt.gz
RH
38 44 46 46 46 46 47 47 45 42 39 38 35 32 31 29 26 25 26 27 27 26 27 27 27 27 27 27 26 25 24 22 22 21 20 20 18 18 17 16 16 16 15 14 14 13 14 18 22 26 28 27 27 26 25 25 27 30 34 35 35 36 37
37 44 46 45 45 46 47 46 44 43 40 37 35 32 31 29 26 25 24 25 25 26 26 26 26 26 26 26 26 25 23 22 21 20 20 20 19 18 17 16 15 15 14 14 13 14 15 17 21 24 25 26 27 27 27 26 25 27 31 34 34 35 36
36 44 44 44 46 47 47 45 44 44 42 37 35 34 32 29 27 27 25 24 24 25 26 26 26 26 25 26 26 25 23 22 21 20 19 18 18 17 17 17 16 15 14 13 13 15 15 16 18 20 21 23 25 26 25 25 24 25 27 31 33 33 33
33 43 45 45 49 50 47 45 43 45 43 39 36 34 31 29 27 27 27 25 24 25 25 26 26 26 25 26 26 25 24 23 22 20 18 17 17 17 17 17 16 15 14 12 13 14 15 15 15 16 18 19 20 22 22 22 22 23 24 26 30 32 31
29 38 45 46 48 48 45 43 43 44 44 40 36 33 30 29 28 27 27 27 26 24 25 25 26 25 25 24 24 24 23 23 22 20 18 17 17 17 16 15 14 13 12 11 12 13 14 14 14 14 15 16 17 18 19 21 21 21 21 22 25 28 29
26 32 40 42 44 45 43 42 42 44 44 40 35 33 31 30 28 27 28 28 27 25 25 26 25 25 24 24 23 23 23 22 22 20 19 17 16 15 14 13 12 11 11 11 11 12 14 15 15 15 16 17 17 19 19 20 21 21 21 21 22 24 26
25 30 37 40 40 42 43 42 42 44 45 40 36 35 33 32 30 28 28 28 28 27 25 25 25 24 24 24 23 23 23 22 21 20 19 18 17 16 13 12 12 11 11 11 11 12 14 16 18 18 19 20 21 21 21 22 22 22 22 22 22 22 24
24 28 34 37 38 41 43 41 41 45 45 41 38 37 36 35 31 29 28 28 29 29 27 25 24 23 23 23 23 23 22 21 19 19 18 19 19 18 16 14 13 12 12 12 12 12 14 16 19 21 22 23 23 23 23 22 23 23 22 22 22 22 23
23 24 29 33 35 40 43 40 40 45 44 40 39 39 38 35 32 29 27 28 29 29 28 25 24 23 23 23 23 22 21 19 19 18 18 20 20 20 18 16 14 13 13 14 14 14 16 18 20 22 23 23 23 23 23 23 23 23 23 23 23 23 23
21 23 26 32 37 42 45 43 42 43 41 39 39 39 38 34 31 29 27 28 28 29 29 27 25 23 22 22 22 21 21 20 18 18 19 20 20 20 19 17 16 16 16 17 17 17 17 18 20 21 23 23 23 22 22 22 22 22 23 23 23 23 23
19 21 25 33 40 45 48 46 43 42 40 39 39 38 35 32 31 29 27 28 29 29 30 29 28 25 22 22 22 22 21 20 18 18 18 18 19 18 18 18 18 19 20 20 20 20 19 19 20 21 22 22 22 21 21 20 20 21 21 21 21 22 22
18 20 24 33 41 44 46 46 43 42 41 40 40 37 33 32 32 31 29 29 29 29 30 30 29 26 23 22 22 22 22 20 19 17 17 17 17 16 17 18 20 21 22 22 22 22 22 22 22 21 21 20 20 20 20 20 20 20 19 19 19 20 20
18 19 23 32 39 42 43 43 43 42 41 42 40 37 34 33 33 32 31 30 30 30 30 31 30 28 25 24 23 23 22 21 19 17 17 17 16 17 18 19 21 23 23 24 25 26 26 25 24 22 22 20 20 19 20 20 20 20 19 19 19 19 19
19 19 22 29 35 37 36 37 40 42 41 42 40 37 36 36 35 34 33 31 30 31 32 32 32 31 29 27 26 25 24 22 20 19 18 18 18 19 20 21 23 24 25 26 27 28 28 26 25 24 23 22 21 20 20 20 20 19 20 20 21 21 22
20 20 23 27 31 33 32 33 38 40 40 41 39 37 38 39 38 37 35 32 30 31 32 33 34 34 33 32 30 28 26 24 23 21 21 22 23 24 24 24 25 26 27 27 29 29 28 28 26 24 24 23 22 21 21 21 21 21 22 23 25 26 27
19 21 24 28 33 34 34 35 38 38 39 40 38 37 38 40 40 37 34 32 31 31 31 33 34 34 35 35 35 33 31 30 28 26 25 25 25 26 26 27 28 29 29 28 29 29 29 29 28 26 24 23 21 21 22 23 24 25 26 28 29 30 32
19 21 27 32 34 35 37 38 39 39 40 40 38 37 37 39 38 35 33 32 31 32 33 33 34 34 35 37 38 37 37 36 35 33 32 30 29 28 27 27 29 31 31 30 29 30 30 30 29 27 24 22 21 23 24 25 26 26 28 29 30 32 34
18 21 27 31 34 35 37 39 40 41 40 39 39 38 39 37 34 33 34 33 34 35 36 35 34 34 36 38 39 38 38 39 39 38 37 35 34 32 30 28 28 30 33 33 31 31 31 32 30 27 25 23 22 25 26 26 26 27 30 31 32 34 36
19 22 27 31 33 35 36 38 40 40 39 39 39 39 39 37 34 34 36 37 37 37 37 37 36 37 38 40 42 42 43 43 43 42 41 39 38 36 34 32 30 30 33 35 34 33 32 33 31 28 25 24 24 26 27 26 27 29 31 32 34 36 39
23 25 28 31 34 37 38 38 40 40 41 41 41 41 41 40 38 39 40 39 39 38 37 38 39 40 42 43 44 46 47 47 47 46 45 44 42 40 37 37 36 35 35 36 37 36 35 34 32 30 27 26 27 28 28 27 28 30 33 35 37 40 43
28 28 29 32 36 38 39 39 40 42 42 43 44 45 45 44 43 43 42 40 40 39 37 38 40 41 43 43 44 45 46 46 46 46 45 45 45 44 42 41 41 41 41 40 40 38 37 37 35 33 31 30 30 31 30 30 31 34 37 39 42 44 46
34 32 33 36 37 38 39 40 41 42 42 43 44 45 45 45 43 42 40 40 39 38 37 38 39 40 41 42 43 43 43 44 44 44 43 42 42 43 44 45 46 47 47 46 44 42 41 41 40 38 35 34 34 34 32 33 36 39 40 42 45 47 48
37 36 38 40 40 40 41 41 41 43 43 43 43 44 45 45 44 41 40 40 39 39 39 39 40 40 40 41 42 42 42 42 42 41 41 40 39 40 43 47 51 52 51 51 49 46 44 43 43 40 38 37 37 36 35 37 40 42 43 45 47 49 50
36 38 40 42 42 42 42 42 41 42 42 42 42 42 42 43 43 43 42 41 41 40 39 39 39 40 41 40 41 41 41 41 42 42 40 38 36 36 38 46 51 54 53 53 52 49 46 44 42 40 38 37 37 38 39 41 43 44 45 47 49 50 50
37 36 37 40 42 43 42 42 41 39 37 36 35 35 37 39 41 42 43 42 41 40 39 38 38 38 39 40 40 40 40 40 41 41 40 39 37 35 36 42 50 53 53 53 52 50 47 44 41 39 39 39 39 40 41 42 44 45 46 48 49 50 50
42 40 38 38 40 39 38 37 37 36 36 33 32 31 32 35 38 41 41 40 39 38 38 38 38 38 38 39 39 39 40 40 40 40 40 40 40 37 36 38 44 47 48 49 49 47 44 41 40 40 42 41 41 41 41 41 43 44 45 46 47 47 48
46 44 42 40 38 35 34 33 33 33 32 31 30 29 30 31 33 36 37 36 36 36 36 36 36 36 36 36 36 37 38 38 39 39 39 39 40 39 38 39 42 43 43 43 42 41 40 40 41 43 43 43 42 41 41 42 43 44 44 44 44 45 45
45 44 44 42 39 35 33 31 31 31 29 27 26 25 26 26 27 30 32 32 31 32 33 33 34 34 34 34 34 34 35 35 36 38 38 39 39 39 40 41 43 45 45 44 42 41 41 41 42 43 43 44 44 43 43 43 44 44 44 43 44 45 46
48 46 45 42 41 40 37 33 31 31 31 30 27 25 24 24 24 26 28 28 27 26 26 27 27 29 30 30 29 30 31 33 34 35 36 38 38 39 39 40 42 44 45 45 45 44 44 44 43 43 44 45 45 45 45 45 45 45 46 47 47 48 49
52 50 47 42 40 40 40 39 37 35 34 32 30 28 26 26 26 27 28 30 29 27 24 23 22 23 24 25 25 25 27 29 31 33 34 36 38 38 38 38 40 41 42 42 43 44 45 45 44 43 44 44 45 46 46 47 47 48 49 50 51 52 53
56 55 50 43 39 38 39 40 40 39 38 36 32 30 29 30 30 31 31 32 31 30 27 24 22 21 21 21 21 21 22 23 26 28 31 34 36 38 38 37 38 39 41 42 42 43 44 45 45 43 44 45 47 48 48 48 50 51 52 53 54 54 55
56 55 51 44 39 36 35 33 34 34 34 33 32 30 31 33 33 32 32 31 30 30 28 25 24 22 20 19 19 19 20 21 22 24 27 31 35 37 37 37 36 38 40 42 43 44 44 45 45 44 44 46 48 50 51 51 52 52 53 54 55 54 54
55 54 52 48 41 37 34 30 27 28 30 31 32 32 33 34 34 32 32 31 31 30 28 27 26 24 22 21 20 19 20 21 21 21 23 27 32 34 34 34 34 35 37 39 40 43 44 45 45 46 46 48 50 50 51 51 51 52 53 54 53 52 52
58 56 54 50 44 39 36 33 29 28 29 31 32 33 33 33 33 32 32 31 31 30 29 28 28 26 24 23 21 21 21 21 21 21 22 24 28 30 31 32 32 32 33 35 36 39 41 43 44 46 47 48 49 50 51 51 52 52 53 53 53 52 50
57 56 55 53 48 42 39 36 33 31 31 30 31 32 33 32 33 33 32 31 30 29 28 27 28 29 28 26 24 23 22 22 22 22 23 24 26 28 30 31 31 31 32 32 34 36 38 40 42 44 45 46 47 48 50 51 52 52 53 54 53 52 51
54 55 54 53 52 48 42 38 34 32 31 31 30 31 32 32 32 33 32 32 32 31 30 28 28 30 30 28 26 26 25 25 25 25 25 26 27 28 29 30 31 32 32 33 35 36 37 38 41 42 43 44 45 46 48 49 50 50 51 51 51 51 51
53 53 51 49 48 46 43 39 34 31 31 32 32 31 31 32 32 32 31 31 32 33 33 31 30 30 30 29 28 28 27 28 27 27 27 28 28 29 30 31 32 33 35 36 37 37 38 39 39 40 41 43 44 45 45 46 46 46 47 47 47 47 47
51 52 49 46 44 45 44 42 38 34 32 33 33 32 31 31 31 31 32 32 32 33 33 32 31 31 31 31 30 30 30 30 30 29 30 31 32 33 32 33 34 35 37 39 39 39 39 39 39 39 40 41 42 43 43 44 44 44 44 45 44 43 42

ECMWFFLT1_prec_cthk_042.txt.gz
RH
43 46 49 49 52 53 50 50 48 44 43 44 44 44 44 43 41 37 34 31 30 29 30 30 30 29 29 28 29 30 30 30 30 29 27 26 25 27 26 25 24 25 26 26 25 24 25 26 25 26 27 27 27 28 29 29 31 32 33 35 37 39 41
40 43 46 48 50 51 49 50 50 46 44 44 44 45 44 43 41 38 37 34 31 28 28 29 29 29 28 27 27 28 29 29 29 28 27 25 25 26 26 25 24 24 25 25 24 24 24 24 25 26 27 27 27 28 29 28 29 30 31 32 33 36 40
36 38 43 46 48 49 48 49 50 47 44 43 44 44 43 42 41 38 37 36 33 30 28 28 28 28 28 27 27 27 27 28 28 27 26 24 23 23 24 25 24 23 24 24 24 24 24 25 26 26 26 25 25 26 27 26 26 27 29 29 29 32 36
33 34 39 43 47 48 48 49 50 47 44 42 43 44 43 42 41 39 37 37 36 32 28 27 27 27 27 28 27 26 26 26 27 26 25 24 23 23 24 23 23 23 23 23 24 25 26 26 26 26 24 23 23 23 24 25 24 25 26 27 26 28 31
31 32 35 40 44 46 46 48 49 48 45 42 42 44 44 44 42 40 38 36 35 32 28 27 27 27 27 27 27 26 25 25 26 26 25 25 24 24 24 23 22 22 22 22 24 25 26 26 25 24 21 20 21 21 21 22 22 23 24 25 26 27 29
30 32 33 37 41 42 45 47 48 48 46 42 42 44 45 44 42 39 38 36 35 32 29 28 27 27 27 27 27 27 26 25 25 26 26 25 25 25 24 23 22 22 22 22 23 24 25 25 23 21 19 18 18 19 18 18 20 22 24 24 26 28 29
29 31 32 36 39 41 43 46 47 47 46 44 44 45 46 44 42 39 37 36 34 32 30 28 27 27 27 27 27 27 27 25 25 25 25 25 25 24 23 24 23 23 23 23 23 23 24 23 22 20 18 17 16 17 17 16 18 22 24 24 25 27 30
27 29 31 35 38 38 41 44 45 47 47 46 45 45 44 43 42 39 37 35 34 31 29 28 27 27 27 27 27 26 26 26 25 24 25 24 24 23 23 23 23 23 24 23 22 22 22 21 20 19 17 16 15 15 16 16 18 22 25 25 25 26 29
27 28 30 33 35 35 38 40 44 46 46 46 46 45 44 43 42 40 36 34 32 29 28 27 26 26 27 27 26 25 26 26 26 25 24 24 23 22 22 21 22 22 23 22 21 21 19 19 18 18 17 15 15 16 17 18 20 23 25 25 25 26 26
25 26 27 30 32 34 36 39 43 45 44 44 46 46 45 44 43 41 38 35 32 29 27 26 26 26 26 26 26 26 26 26 25 25 24 23 22 22 21 21 21 21 20 20 20 19 17 17 17 16 15 14 15 16 18 20 22 23 24 24 24 24 24
22 24 24 26 29 33 37 40 43 42 41 42 45 46 46 45 44 42 39 36 33 30 27 26 27 26 26 26 26 27 26 26 25 25 23 22 22 21 21 20 20 19 19 19 18 17 16 16 16 15 15 14 15 17 19 21 22 23 23 24 24 24 24
20 22 22 24 28 33 38 40 41 40 39 40 43 45 46 46 45 43 39 37 35 31 28 27 27 28 27 27 26 27 27 27 25 24 23 22 22 21 21 20 19 18 17 18 17 17 16 15 15 14 14 14 16 18 19 21 22 22 23 24 24 23 24
17 19 21 24 27 33 39 41 40 40 39 39 40 44 45 46 45 43 39 37 35 33 30 28 29 29 29 28 28 27 27 26 25 24 23 23 22 21 20 20 19 18 17 17 17 17 16 15 15 14 15 16 17 18 20 21 22 22 22 22 22 22 22
14 17 19 23 26 30 37 41 42 42 40 38 39 43 45 46 45 43 41 37 35 33 31 29 29 29 29 29 29 28 26 25 25 24 24 23 22 22 21 20 19 18 17 17 17 16 15 15 15 16 16 18 18 18 20 21 22 22 21 21 20 20 19
13 15 17 20 25 28 34 39 40 41 39 37 38 43 46 46 45 44 41 38 35 34 33 30 29 28 29 30 29 28 26 25 24 24 23 23 23 22 21 20 20 18 18 18 17 15 15 16 18 19 19 19 19 20 21 22 22 21 20 20 18 18 16
13 14 15 18 23 27 32 36 38 38 38 37 38 42 46 46 45 43 41 38 35 35 34 32 29 28 29 29 28 28 27 26 24 23 23 22 22 21 21 20 20 19 19 18 17 17 17 19 20 21 21 20 21 22 23 23 22 21 19 18 17 16 15
14 14 15 17 21 24 28 34 37 38 37 36 37 42 46 45 43 43 42 38 35 35 35 33 30 29 28 29 29 29 28 28 25 22 22 22 22 22 21 21 20 20 20 18 18 18 20 21 22 21 21 22 23 24 25 24 22 21 19 17 16 16 15
16 15 14 16 19 22 25 29 35 38 38 36 37 41 45 45 43 43 42 38 34 34 34 33 31 29 28 28 29 29 29 28 25 23 21 21 21 21 21 21 21 21 20 19 19 21 22 23 23 22 23 23 25 26 26 24 23 21 20 18 16 16 16
18 16 14 16 19 22 23 26 32 37 38 37 37 40 43 43 42 41 39 35 34 34 33 32 33 32 30 29 29 28 28 27 25 23 21 20 20 20 21 21 21 21 20 20 21 22 24 25 25 25 26 26 27 27 27 25 24 23 21 19 17 17 17
18 18 15 17 21 23 24 28 33 38 39 39 39 40 43 43 42 41 38 36 35 34 32 33 35 36 36 34 32 29 28 27 26 24 22 20 19 20 20 21 21 21 21 22 24 26 27 27 27 27 27 28 28 28 28 27 26 25 22 20 18 19 21
16 17 16 18 22 25 28 32 35 39 41 44 44 43 45 46 44 42 40 38 36 34 34 35 36 38 39 38 36 33 31 30 29 28 26 24 22 21 21 20 21 22 24 26 29 30 30 29 29 29 28 29 29 29 28 27 27 26 24 22 21 22 26
18 16 18 18 20 26 31 32 34 40 45 47 46 46 47 47 46 44 41 39 37 35 35 36 37 38 38 38 38 37 35 34 33 32 31 29 28 27 26 25 25 26 28 30 32 33 34 33 33 32 30 30 31 30 29 28 28 28 25 24 24 26 29
24 19 20 20 22 27 31 33 37 43 47 47 47 47 47 48 47 45 43 41 38 36 35 35 36 35 35 35 36 37 37 37 37 37 36 36 36 36 36 37 36 37 36 36 36 36 36 36 36 35 34 33 32 31 30 29 28 29 28 28 28 29 30
33 25 22 23 24 28 31 35 40 45 46 46 47 47 47 47 48 46 44 43 40 37 34 33 33 33 32 33 34 36 37 38 39 40 41 43 44 45 45 45 46 46 45 44 42 40 38 37 37 37 37 36 35 34 33 32 30 31 32 32 32 31 30
40 32 26 24 24 28 32 37 41 44 45 45 44 45 46 47 48 48 46 44 43 38 35 34 34 34 34 34 35 37 39 40 41 44 45 47 47 47 47 48 47 47 48 46 45 44 42 39 37 36 36 37 38 39 39 37 35 36 37 37 36 35 34
44 39 33 28 26 30 35 39 40 41 42 41 41 43 46 47 48 48 46 45 44 40 37 36 37 38 37 38 39 39 40 40 43 45 47 47 47 47 47 46 46 46 46 46 45 45 45 43 41 39 37 37 40 42 42 41 39 39 41 41 40 39 39
45 43 40 34 32 35 39 41 41 42 44 43 41 43 47 47 47 47 46 46 45 42 39 40 41 41 40 40 40 40 40 41 43 45 47 48 48 48 47 45 44 44 43 43 44 44 45 45 44 44 43 41 43 45 45 44 42 41 43 44 43 42 42
44 45 43 40 38 41 44 45 45 46 48 47 45 45 46 47 48 48 47 47 46 43 42 42 43 42 42 41 42 41 41 43 45 46 47 48 48 48 48 47 46 44 43 43 43 43 44 46 47 48 49 49 50 50 49 47 46 45 45 45 45 44 43
46 44 42 42 43 46 48 49 50 51 52 50 48 48 48 48 49 50 50 49 48 46 45 45 44 44 44 44 44 44 43 43 44 45 46 47 47 48 48 49 49 47 46 45 44 42 43 46 49 51 54 55 57 56 54 51 49 48 47 45 44 43 43
51 47 43 42 46 50 51 53 54 56 56 55 53 51 51 51 52 52 53 53 52 50 49 49 49 46 45 45 45 44 43 42 43 44 45 46 46 47 47 48 49 49 49 48 46 45 44 45 48 52 56 57 58 59 57 55 52 51 48 45 44 43 44
58 53 48 46 48 52 54 56 58 59 59 60 58 57 55 54 54 56 57 57 57 54 51 51 50 48 46 45 44 43 43 43 43 43 44 44 44 44 45 46 47 48 49 49 48 47 47 46 47 49 53 55 56 56 57 56 54 50 47 47 47 48 49
64 59 55 52 52 55 57 59 59 59 60 61 59 57 57 57 57 57 58 58 57 55 51 48 48 46 44 43 43 43 42 42 41 40 41 41 43 43 44 44 43 44 46 47 48 48 48 47 47 47 50 52 53 53 54 53 50 47 46 48 49 50 50
67 65 64 62 59 59 62 63 61 61 60 59 57 56 56 57 57 56 56 55 55 53 50 48 46 44 42 42 43 42 42 41 41 40 39 39 41 42 43 42 42 42 43 44 45 46 47 47 47 48 49 50 51 53 53 52 50 49 49 50 50 51 52
63 65 66 68 67 66 68 68 66 65 64 61 59 57 55 53 50 49 50 50 49 48 47 46 45 44 43 43 42 42 43 43 41 41 40 39 40 41 42 42 42 42 41 41 42 43 45 47 47 48 48 49 50 51 52 53 53 54 54 55 55 55 56
56 60 60 62 65 67 68 68 65 64 64 62 59 55 52 49 47 47 47 47 46 44 42 43 44 44 43 43 42 42 43 43 42 41 42 41 40 40 41 41 41 42 42 41 41 41 42 45 47 48 48 49 49 49 50 52 53 54 55 56 57 58 58
48 55 58 57 59 62 63 63 61 59 58 58 55 52 50 49 50 50 49 48 46 44 43 42 42 43 45 45 44 43 43 43 42 41 41 41 41 40 40 40 41 42 42 42 42 42 42 43 45 47 48 49 49 49 49 49 51 53 54 55 56 57 57
45 50 56 58 57 58 59 58 58 56 56 56 55 53 54 54 53 49 47 45 44 44 44 42 41 42 45 47 46 45 45 45 43 42 41 41 41 41 40 40 40 41 42 42 42 42 43 44 45 46 46 46 46 48 48 48 48 49 49 51 53 53 53
48 48 54 60 60 58 58 58 57 58 58 58 58 58 59 59 54 47 43 41 40 38 38 37 37 39 43 46 46 46 46 45 43 42 41 40 40 40 40 40 39 39 39 40 39 40 41 43 45 44 43 43 43 45 47 48 47 47 46 47 48 49 50

ECMWFFLT1_prec_cthk_045.txt.gz
RH
51 50 50 51 51 52 50 51 52 52 51 48 44 41 39 36 33 31 31 31 31 32 32 31 32 31 30 30 31 31 30 30 30 29 28 28 28 26 24 23 24 24 24 24 25 26 26 26 27 28 30 32 32 32 33 34 34 35 36 36 36 37 38
48 47 47 48 50 51 50 48 50 51 50 48 46 44 42 38 35 32 31 31 30 31 31 31 31 31 30 29 30 31 31 30 30 29 28 27 27 26 25 24 24 24 25 24 25 26 26 26 27 28 29 30 30 30 30 32 33 34 35 35 36 37 38
44 45 45 46 48 50 50 48 48 49 50 48 45 44 43 41 37 34 33 32 32 32 31 31 31 31 30 29 29 30 30 30 30 30 29 27 26 26 25 25 25 25 25 25 25 25 26 26 26 27 27 27 27 27 27 28 30 31 32 32 33 34 36
40 41 43 45 46 48 48 48 47 48 50 49 45 43 43 42 40 38 35 34 34 33 31 30 30 30 30 29 28 29 29 29 30 30 29 28 27 26 25 25 25 26 26 25 25 25 26 26 26 26 25 25 25 25 25 25 26 28 30 31 31 32 32
38 38 40 43 46 46 46 47 47 48 49 49 46 45 44 44 44 42 39 37 36 35 32 31 30 30 30 29 28 28 28 28 29 29 29 28 27 26 25 25 25 25 25 25 25 25 25 26 26 25 24 24 24 23 22 22 23 25 27 29 30 30 31
35 36 38 40 43 45 44 45 47 47 47 49 48 46 45 45 44 43 42 40 38 37 36 34 31 29 29 29 29 28 27 27 27 28 28 28 27 26 24 23 23 23 24 24 24 24 25 25 25 25 25 25 24 21 19 20 21 22 25 28 29 30 30
33 34 35 37 40 42 43 45 47 47 47 48 49 47 47 47 45 44 44 42 40 39 38 35 32 29 28 28 28 27 26 26 26 27 28 28 27 26 24 23 22 22 23 23 23 23 24 24 24 26 26 25 23 20 18 18 19 20 22 26 29 30 30
32 32 32 34 37 40 42 43 46 47 47 48 49 48 46 46 46 45 43 41 40 38 37 34 32 29 27 27 27 26 25 26 26 26 26 27 27 26 24 23 22 22 22 22 23 23 24 24 25 26 25 24 21 18 17 17 17 18 20 24 28 30 31
31 30 30 33 36 38 40 42 44 47 47 46 48 48 45 45 45 43 42 41 40 38 35 34 32 29 27 27 26 25 25 25 25 25 25 25 25 25 24 23 22 22 22 21 22 23 24 25 25 25 24 21 19 16 15 15 16 17 18 22 27 31 31
30 29 30 33 36 38 41 42 43 46 46 44 47 48 46 45 44 42 42 41 40 37 36 35 33 30 27 26 26 26 25 25 25 25 25 24 24 24 24 23 23 22 22 22 22 22 22 23 24 23 22 20 17 15 14 14 15 17 19 22 27 29 29
29 29 31 34 38 39 41 42 41 42 43 43 46 48 47 45 43 42 41 40 39 38 37 36 33 30 27 26 27 27 26 25 25 25 24 24 23 23 23 23 23 22 21 22 22 21 21 21 22 21 19 18 16 15 14 14 16 19 21 23 26 28 28
26 28 32 35 37 39 41 42 39 39 41 42 43 46 47 45 43 42 40 40 40 39 38 36 32 29 27 27 27 27 26 25 24 24 24 23 23 22 22 23 23 21 21 20 20 19 19 19 19 18 17 16 15 14 14 15 17 20 22 23 25 26 26
23 25 29 33 36 37 39 40 38 36 38 40 41 42 44 44 43 42 41 40 40 40 38 36 32 29 27 27 27 27 26 25 24 23 23 23 22 22 22 22 22 21 20 20 20 19 18 17 16 15 15 14 14 13 13 15 18 21 22 22 23 24 24
23 24 26 30 33 34 36 37 35 35 38 40 41 41 42 43 42 41 41 40 40 41 39 36 33 29 26 26 26 25 24 24 24 23 23 23 22 22 22 22 22 22 21 20 20 19 18 16 15 14 14 14 13 12 13 16 19 21 22 22 22 22 22
23 23 23 26 28 30 32 32 31 33 37 41 42 42 43 43 42 41 41 41 41 40 39 36 33 28 26 26 26 25 24 24 24 24 23 23 23 22 22 22 22 22 21 20 19 19 18 16 15 14 14 13 12 12 15 18 20 21 21 21 21 21 21
23 21 20 22 24 25 26 28 29 31 37 42 43 43 43 42 42 41 40 40 40 40 38 36 32 28 26 25 25 25 24 24 24 24 24 24 23 23 23 22 22 22 21 20 19 19 18 17 16 14 13 12 12 13 16 19 20 20 20 21 21 21 20
26 21 19 19 19 20 21 24 27 30 37 43 44 43 42 41 41 41 40 40 40 39 37 35 32 29 27 26 25 25 26 25 25 25 24 24 23 23 23 23 22 22 21 20 20 20 19 17 16 14 13 13 13 15 18 19 20 20 20 21 21 21 20
31 26 21 18 17 16 17 22 26 29 37 44 45 43 42 40 40 41 42 41 40 39 38 35 32 29 28 28 27 26 26 27 27 26 25 24 23 23 23 23 23 22 21 20 20 20 20 19 18 15 14 15 16 18 20 20 19 19 20 21 21 21 20
33 30 24 18 15 14 15 19 22 26 35 42 44 44 44 42 40 40 41 41 40 39 38 35 32 30 31 31 29 27 27 27 28 28 26 25 23 23 23 22 22 21 21 20 20 21 21 21 20 18 17 18 19 21 22 21 20 19 20 20 21 21 21
33 31 25 18 15 15 15 16 19 24 33 40 43 45 45 43 39 40 43 44 42 40 38 36 34 33 34 34 31 29 28 28 29 28 28 26 24 23 22 21 20 20 20 20 20 21 21 22 21 21 20 22 22 23 24 23 22 21 21 21 21 21 21
34 33 28 21 18 18 15 15 18 24 32 38 43 45 43 40 39 42 45 45 43 41 40 38 36 34 34 35 33 30 28 28 29 29 28 27 25 22 20 20 19 20 20 20 20 21 21 21 22 23 24 25 25 26 26 25 24 24 24 23 22 22 22
37 37 34 27 23 19 15 14 17 23 30 38 43 44 40 38 39 42 45 45 43 42 41 39 37 35 35 35 34 30 28 27 28 28 27 26 24 21 19 19 19 19 19 20 20 21 21 21 22 24 27 28 29 29 28 26 26 26 26 26 25 25 24
41 40 35 28 24 20 16 16 20 26 33 39 42 42 40 40 41 43 46 46 44 43 43 41 37 34 33 34 34 31 28 27 26 26 25 24 22 19 18 18 18 18 19 20 20 21 21 21 23 26 29 30 31 32 30 28 27 27 27 28 28 28 28
43 41 34 26 23 20 16 18 23 28 33 37 40 41 42 43 44 45 46 46 44 43 43 41 36 32 32 33 33 32 30 28 27 26 25 24 22 21 19 19 19 18 19 19 20 21 21 22 25 29 31 32 33 33 32 31 30 28 28 30 31 31 31
44 43 35 26 22 21 19 19 23 27 31 36 39 41 42 44 45 46 46 45 44 42 41 38 34 31 31 32 33 33 33 32 30 28 26 26 25 25 24 24 23 23 23 23 23 23 24 25 28 31 33 34 35 35 34 34 34 31 31 32 33 34 33
46 44 37 29 23 22 21 21 23 26 31 36 39 41 43 44 45 46 46 46 44 41 38 35 32 30 30 31 33 34 34 34 33 32 30 29 29 28 29 29 29 30 30 31 31 32 32 33 34 35 36 36 37 37 37 37 37 35 34 34 35 35 36
48 47 42 34 26 23 24 26 26 28 32 35 38 42 45 47 47 47 47 46 44 40 36 32 31 29 29 30 31 32 33 34 34 34 34 34 34 34 35 36 38 39 40 40 41 42 42 43 43 42 41 40 39 38 38 38 37 36 35 35 36 37 39
52 49 46 41 32 26 28 32 32 32 34 36 39 43 46 48 48 48 47 45 43 40 37 34 32 30 29 29 29 30 31 32 33 33 34 35 37 39 41 43 45 46 46 46 46 46 47 48 48 47 46 45 43 40 38 36 36 35 35 35 36 38 40
55 52 48 45 39 33 31 34 35 35 36 39 41 44 46 48 49 48 46 44 43 42 40 35 32 31 30 29 29 29 29 29 30 31 33 35 39 43 45 46 46 46 45 45 45 45 45 45 45 46 46 45 44 44 42 40 39 38 38 38 39 40 42
58 55 51 48 45 41 38 37 37 37 39 42 45 47 47 48 48 48 46 45 45 44 42 38 37 35 35 34 33 32 31 31 31 33 35 37 40 43 45 45 45 45 45 43 43 43 43 43 44 45 45 45 46 47 47 48 47 46 46 46 45 45 45
60 58 55 51 48 46 44 43 42 42 44 47 48 48 47 48 49 48 46 45 46 46 44 43 42 41 40 39 39 38 38 37 37 38 39 40 41 43 45 46 47 48 48 47 46 45 45 45 46 46 47 47 48 49 51 52 54 56 57 57 55 53 50
63 61 58 54 51 49 48 49 49 49 49 50 50 49 48 48 48 46 46 47 49 49 48 47 46 45 44 43 43 43 43 43 42 42 43 44 45 47 48 48 49 50 50 50 50 50 50 50 50 50 51 50 50 51 52 53 56 59 61 61 61 59 56
66 65 62 59 56 54 52 53 55 56 56 55 53 51 49 48 47 46 49 51 52 51 51 50 49 48 47 45 44 44 45 44 44 44 45 46 47 48 48 49 49 50 50 50 50 51 52 53 52 53 53 52 51 52 52 53 55 58 59 59 59 59 58
68 69 67 63 61 59 56 56 59 61 62 61 59 56 54 53 51 51 53 54 54 53 54 54 53 51 48 45 45 44 44 44 45 45 46 45 45 46 46 47 48 48 48 48 49 50 51 51 52 52 53 53 53 53 52 52 53 55 57 57 57 58 57
65 70 70 67 63 61 61 61 61 63 65 65 63 61 60 59 59 58 58 59 59 59 58 58 58 56 51 47 45 43 43 44 45 45 45 44 43 44 44 45 45 46 47 47 47 47 49 49 48 49 51 52 53 53 53 53 53 55 56 57 58 59 58
62 67 70 69 65 62 63 64 64 65 66 66 64 63 61 61 61 61 61 62 63 63 62 62 61 59 54 50 46 43 43 44 44 44 44 43 41 41 42 43 43 44 45 45 45 45 47 47 47 47 47 48 50 51 53 55 55 56 57 58 59 60 60
59 62 67 69 68 65 65 67 68 68 68 68 67 64 61 60 60 60 60 60 61 61 61 62 60 57 53 50 48 45 45 44 43 44 44 44 42 42 41 42 42 42 42 42 43 44 45 45 45 46 46 47 47 48 50 52 54 56 57 57 58 58 59
55 58 63 66 67 65 65 68 71 72 72 71 69 65 62 61 59 58 57 57 59 59 59 58 56 52 49 48 47 46 44 43 42 42 43 44 45 44 42 42 42 42 42 42 42 43 44 44 45 46 47 48 49 48 48 49 50 52 54 54 55 55 55

ECMWFFLT1_prec_cthk_048.txt.gz
RH
45 50 53 53 53 52 51 53 55 55 53 52 50 47 42 37 36 36 34 30 29 30 31 31 31 29 30 30 31 30 30 30 30 29 28 27 26 26 25 25 25 26 25 24 22 23 25 29 32 30 30 32 32 31 32 33 32 32 33 34 35 35 36
44 48 50 51 51 51 51 51 52 53 52 51 50 49 46 41 36 34 33 30 29 29 31 31 31 30 29 29 30 29 30 30 30 30 30 30 30 28 26 25 25 25 25 24 23 22 24 27 30 30 30 32 33 33 33 34 34 34 34 34 35 36 36
42 45 48 49 49 50 50 51 51 51 51 49 48 48 46 43 36 32 31 30 28 29 30 30 30 30 30 29 29 28 29 30 30 30 31 31 30 29 26 25 24 25 25 24 23 22 23 26 29 31 31 32 33 33 34 35 35 34 35 34 35 37 37
38 42 45 48 49 50 50 50 51 51 50 48 47 47 45 43 40 35 32 30 28 27 27 28 29 30 30 29 29 28 28 29 30 30 30 31 30 29 28 25 24 25 25 23 22 22 23 25 28 30 30 30 32 31 31 32 32 32 32 32 33 34 33
33 38 42 46 48 49 49 48 50 51 51 48 47 47 46 45 44 40 36 31 29 28 27 28 29 30 30 30 29 28 27 28 29 29 30 31 31 29 28 26 25 25 24 23 22 22 23 24 26 29 29 30 30 30 28 28 28 29 29 29 30 30 31
30 34 38 42 45 48 48 47 48 51 51 48 48 49 48 47 46 44 40 34 31 31 29 28 28 29 29 29 30 28 28 28 28 29 30 30 30 30 28 26 26 25 24 24 23 23 23 24 25 27 29 29 29 28 27 26 25 26 26 27 28 28 30
26 30 33 36 41 46 46 47 47 49 50 48 48 49 49 48 47 46 45 40 35 34 32 29 27 27 27 28 29 29 28 28 28 28 29 30 30 30 29 27 25 24 25 24 24 24 24 24 25 26 28 28 28 27 25 24 22 22 22 23 26 26 28
23 26 29 32 37 40 42 45 48 48 48 47 47 48 49 48 48 47 47 45 41 37 34 33 30 27 26 26 26 27 27 28 27 27 28 28 29 29 29 27 25 24 24 25 25 24 23 24 24 26 26 27 26 24 23 22 21 20 19 20 22 24 26
20 23 29 32 34 36 38 42 46 48 48 46 46 49 50 49 49 48 47 46 44 39 35 35 34 30 27 25 24 25 26 27 27 27 27 28 28 29 29 27 25 23 23 24 24 24 23 23 23 24 25 26 24 23 22 22 20 19 18 19 21 22 25
19 24 31 36 36 35 36 39 42 45 46 46 47 49 50 50 49 49 48 48 45 41 37 36 37 36 31 26 24 24 25 25 26 26 26 26 27 28 29 28 26 24 22 23 24 24 22 22 23 23 23 23 23 22 22 21 19 18 17 18 20 22 24
22 29 36 38 37 36 36 37 39 41 44 46 47 49 50 50 50 49 49 47 45 43 42 40 38 38 34 29 26 25 24 24 25 26 25 25 26 28 29 30 29 26 21 21 24 24 22 21 21 22 22 22 22 22 21 19 17 16 16 17 20 21 23
27 34 39 39 38 37 37 37 38 40 43 45 47 49 51 51 51 50 48 48 46 44 44 43 40 38 37 34 30 26 24 23 24 25 25 24 26 28 29 30 31 28 23 19 21 23 22 21 20 21 21 21 22 21 20 18 16 15 15 18 20 21 23
30 35 39 40 39 38 37 38 40 41 43 45 48 49 51 52 51 50 50 49 47 45 44 44 42 40 38 36 33 28 24 23 23 24 24 23 25 28 29 29 29 30 25 20 20 22 22 21 19 20 20 21 20 20 19 18 16 15 15 18 21 22 22
32 34 36 37 38 37 37 38 41 42 42 45 47 49 52 53 52 51 51 50 48 46 44 44 43 42 40 38 34 29 25 24 23 22 23 23 24 25 28 28 28 29 28 23 20 21 22 22 20 19 19 20 19 19 18 17 16 15 16 19 21 21 21
34 34 33 34 36 36 36 38 40 41 41 42 45 48 50 52 51 51 52 51 50 47 45 44 44 44 42 39 34 28 25 25 24 22 22 22 23 23 25 26 26 27 27 24 21 20 21 23 22 19 18 18 18 18 17 16 15 15 17 18 20 20 20
35 36 35 34 34 34 35 38 39 40 39 39 42 45 48 49 49 50 50 51 50 48 46 45 44 45 44 39 34 29 26 25 24 23 22 22 22 21 22 23 24 23 24 22 20 20 21 22 23 22 19 17 17 17 16 15 14 14 16 18 18 19 20
35 37 39 38 37 34 33 33 35 38 38 38 39 41 45 47 47 48 49 50 50 49 47 45 44 44 43 40 36 32 27 24 23 22 22 21 22 21 21 22 22 22 22 22 21 20 21 21 23 23 22 20 17 16 15 13 12 13 15 17 17 18 20
36 38 39 40 40 37 34 30 30 34 37 38 38 38 41 46 48 48 48 49 49 49 48 46 44 43 42 41 39 33 26 23 22 21 21 21 22 22 21 22 22 22 21 21 21 21 20 21 21 22 23 23 21 18 15 12 11 12 15 16 16 18 19
37 38 38 38 38 37 36 31 27 29 34 38 38 36 37 43 47 47 47 48 49 49 48 47 45 43 42 41 39 32 26 23 22 21 21 21 21 21 22 22 22 22 22 22 22 21 21 20 21 20 21 22 21 19 17 14 11 12 15 15 16 17 19
36 38 38 37 36 35 35 31 26 25 31 36 37 35 35 40 45 47 47 48 49 50 49 48 48 45 42 39 35 30 25 23 23 23 22 21 21 21 22 22 22 22 23 23 22 22 21 20 20 20 20 20 19 17 17 15 13 13 15 16 17 17 19
35 37 37 37 35 34 34 31 26 22 27 34 36 36 37 41 46 48 48 47 49 49 49 49 50 48 43 38 32 27 24 23 23 23 23 23 22 22 21 22 22 23 23 23 23 22 21 20 20 19 19 19 19 18 16 14 13 14 16 17 18 19 19
35 36 38 36 35 33 32 30 26 21 25 32 35 35 37 42 46 48 47 47 48 49 49 50 50 49 45 38 31 27 25 23 23 23 24 25 25 24 23 22 22 23 22 23 24 23 21 20 19 19 19 19 19 19 17 14 14 16 17 19 20 21 21
37 37 38 36 34 32 29 27 25 22 24 30 32 33 37 42 46 48 47 47 47 48 49 50 50 48 45 38 31 28 27 25 24 24 24 25 26 25 24 23 22 22 22 22 23 24 22 19 19 19 19 19 19 18 17 15 17 19 19 20 22 23 24
37 38 38 35 33 30 27 24 22 21 23 27 29 31 37 43 47 48 47 46 48 50 50 50 49 47 43 37 32 30 29 26 24 24 25 26 26 26 26 25 23 22 21 20 21 22 21 19 19 19 19 19 19 18 17 18 20 21 21 23 25 25 26
36 37 38 34 31 30 28 24 21 21 22 25 27 28 35 42 46 46 48 49 49 51 51 49 47 44 41 36 32 31 29 26 23 24 24 25 26 27 28 27 25 22 21 20 19 20 20 20 20 20 19 19 19 19 18 20 23 24 24 25 27 28 29
37 37 37 34 31 30 30 26 22 20 21 23 25 26 31 41 46 46 48 50 50 50 49 46 42 42 40 37 33 31 29 26 24 24 25 25 26 27 27 27 26 23 21 19 19 18 19 20 20 21 21 21 21 20 20 23 27 28 26 26 28 29 30
39 39 38 37 36 34 33 29 25 22 20 21 25 27 31 39 45 45 47 50 48 46 45 43 42 42 42 37 33 31 29 27 26 26 25 26 26 26 26 25 23 21 19 18 19 19 18 20 22 23 23 24 25 25 25 26 29 30 29 28 29 31 32
42 42 43 44 43 38 35 32 28 25 23 22 25 27 31 38 43 44 46 46 44 43 45 45 43 43 42 37 33 32 30 28 28 28 26 27 26 26 26 25 24 23 22 20 22 22 21 22 23 25 27 27 28 29 30 31 32 33 32 32 32 33 34
45 46 47 49 47 41 35 34 31 27 24 25 26 27 32 40 44 44 43 43 43 45 46 46 44 43 42 36 32 32 31 29 30 30 29 28 28 27 27 27 27 29 29 28 29 31 30 29 29 30 32 33 33 33 35 36 37 36 36 36 37 36 36
48 48 49 52 51 44 36 33 32 29 26 25 27 29 35 42 43 42 42 43 45 46 46 45 44 43 40 35 31 32 32 31 33 33 33 32 31 29 29 29 30 32 33 32 33 36 37 37 39 40 40 41 41 41 41 42 42 40 39 38 38 37 36
51 51 52 54 52 46 39 33 32 31 29 28 29 31 37 41 42 43 46 48 46 45 45 45 45 42 39 35 32 32 31 30 31 33 34 35 35 34 34 34 34 36 38 38 40 43 45 45 46 48 48 48 47 47 47 48 47 44 40 38 38 38 37
53 53 56 56 54 50 44 37 33 33 34 34 34 35 38 41 43 46 50 51 49 47 47 47 46 44 40 37 34 33 32 31 31 31 33 34 35 36 36 38 40 41 43 45 48 49 50 50 50 50 49 49 48 49 50 50 50 48 44 39 37 38 38
56 57 58 57 56 54 48 42 37 36 38 39 39 39 40 42 46 51 52 53 52 51 50 49 48 46 43 39 37 35 34 32 31 30 31 32 33 35 35 37 41 44 44 46 49 51 51 51 50 49 48 48 49 50 51 51 50 50 48 44 42 41 42
58 60 62 59 57 56 52 47 43 41 41 41 41 43 44 45 50 54 54 53 53 52 51 50 50 49 47 44 41 40 39 37 35 34 35 35 35 38 40 40 43 47 47 48 50 52 52 53 52 52 52 51 51 52 52 53 52 52 51 51 50 48 48
59 61 65 66 63 58 55 52 49 46 46 45 43 45 48 48 51 54 52 51 51 51 51 51 51 51 53 52 50 49 47 45 42 41 42 44 44 44 46 47 48 50 52 53 53 54 55 56 56 57 56 56 55 55 55 55 56 57 57 58 57 54 53
61 62 67 72 69 61 56 55 54 52 51 51 49 49 50 50 51 52 52 53 53 52 53 53 52 53 57 58 57 56 54 51 51 49 48 50 49 46 44 46 48 49 52 55 55 55 55 57 59 59 59 59 59 58 58 58 59 61 62 61 59 58 56
64 64 67 73 74 68 60 56 56 55 54 55 54 53 53 53 55 55 57 58 58 56 56 55 54 56 61 64 63 62 59 56 53 51 48 49 50 47 44 44 45 47 49 51 53 53 54 55 57 58 59 59 59 59 59 59 59 60 61 60 60 59 59
67 66 66 71 77 76 68 60 58 58 56 54 54 54 54 55 57 58 59 60 60 59 59 59 59 61 65 66 64 61 59 56 53 51 50 49 47 46 45 44 45 47 48 49 50 51 53 54 54 55 55 55 55 56 57 56 56 56 58 59 60 62 62